Wetterdaten: Donnerstag, 24.12.2020
Datum Zeit Temp. Aussen Temp. o. S. Temp +5cm Feuchte Auss Luftdruck Regen Sonnenschein Regendauer Solar Windben Empfang
24.12.2020 00:00 10,5 C 10,0 C 8,8 C 87 % 1007,5 hPa 0,0 l/m 0 min 0 min 0 W/m 35,4 km/h (5 Bft) 100,00 %
24.12.2020 00:02 10,5 C 10,0 C 8,8 C 86 % 1007,4 hPa 0,0 l/m 0 min 0 min 0 W/m 29,0 km/h (5 Bft) 100,00 %
24.12.2020 00:04 10,5 C 9,4 C 8,3 C 86 % 1007,4 hPa 0,0 l/m 0 min 0 min 0 W/m 22,5 km/h (4 Bft) 100,00 %
24.12.2020 00:08 10,4 C 9,4 C 8,3 C 86 % 1007,4 hPa 0,0 l/m 0 min 0 min 0 W/m 35,4 km/h (5 Bft) 100,00 %
24.12.2020 00:10 10,4 C 9,4 C 8,3 C 86 % 1007,5 hPa 0,0 l/m 0 min 0 min 0 W/m 32,2 km/h (5 Bft) 100,00 %
24.12.2020 00:12 10,3 C 9,4 C 8,3 C 86 % 1007,4 hPa 0,0 l/m 0 min 0 min 0 W/m 35,4 km/h (5 Bft) 100,00 %
24.12.2020 00:14 10,3 C 9,4 C 8,3 C 86 % 1007,4 hPa 0,0 l/m 0 min 0 min 0 W/m 29,0 km/h (5 Bft) 97,83 %
24.12.2020 00:16 10,3 C 9,4 C 8,3 C 85 % 1007,3 hPa 0,0 l/m 0 min 0 min 0 W/m 32,2 km/h (5 Bft) 100,00 %
24.12.2020 00:18 10,2 C 9,4 C 8,3 C 85 % 1007,3 hPa 0,0 l/m 0 min 0 min 0 W/m 19,3 km/h (3 Bft) 100,00 %
24.12.2020 00:20 10,1 C 9,4 C 8,3 C 86 % 1007,2 hPa 0,0 l/m 0 min 0 min 0 W/m 29,0 km/h (5 Bft) 100,00 %
24.12.2020 00:22 10,1 C 9,4 C 8,3 C 86 % 1007,2 hPa 0,0 l/m 0 min 0 min 0 W/m 32,2 km/h (5 Bft) 100,00 %
24.12.2020 00:24 10,1 C 9,4 C 8,3 C 85 % 1007,3 hPa 0,0 l/m 0 min 0 min 0 W/m 45,1 km/h (6 Bft) 97,87 %
24.12.2020 00:26 10,0 C 9,4 C 8,3 C 85 % 1007,2 hPa 0,0 l/m 0 min 0 min 0 W/m 32,2 km/h (5 Bft) 100,00 %
24.12.2020 00:28 10,0 C 9,4 C 8,3 C 85 % 1007,3 hPa 0,0 l/m 0 min 0 min 0 W/m 38,6 km/h (5 Bft) 100,00 %
24.12.2020 00:30 10,0 C 9,4 C 7,7 C 85 % 1007,2 hPa 0,0 l/m 0 min 0 min 0 W/m 32,2 km/h (5 Bft) 100,00 %
24.12.2020 00:32 10,0 C 9,4 C 7,7 C 85 % 1007,2 hPa 0,0 l/m 0 min 0 min 0 W/m 19,3 km/h (3 Bft) 97,92 %
24.12.2020 00:34 9,9 C 9,4 C 7,7 C 85 % 1007,2 hPa 0,0 l/m 0 min 0 min 0 W/m 32,2 km/h (5 Bft) 95,74 %
24.12.2020 00:36 9,9 C 9,4 C 7,7 C 85 % 1007,1 hPa 0,0 l/m 0 min 0 min 0 W/m 38,6 km/h (5 Bft) 100,00 %
24.12.2020 00:38 9,9 C 8,9 C 7,7 C 85 % 1007,2 hPa 0,0 l/m 0 min 0 min 0 W/m 25,7 km/h (4 Bft) 100,00 %
24.12.2020 00:40 9,8 C 8,9 C 7,7 C 85 % 1007,2 hPa 0,0 l/m 0 min 0 min 0 W/m 38,6 km/h (5 Bft) 100,00 %
24.12.2020 00:42 9,8 C 8,9 C 7,7 C 84 % 1007,2 hPa 0,0 l/m 0 min 0 min 0 W/m 32,2 km/h (5 Bft) 100,00 %
24.12.2020 00:44 9,8 C 8,9 C 7,7 C 84 % 1007,1 hPa 0,0 l/m 0 min 0 min 0 W/m 25,7 km/h (4 Bft) 100,00 %
24.12.2020 00:46 9,7 C 8,9 C 7,7 C 84 % 1007,1 hPa 0,0 l/m 0 min 0 min 0 W/m 25,7 km/h (4 Bft) 100,00 %
24.12.2020 00:48 9,7 C 8,9 C 7,7 C 84 % 1007,1 hPa 0,0 l/m 0 min 0 min 0 W/m 22,5 km/h (4 Bft) 100,00 %
24.12.2020 00:50 9,7 C 8,9 C 7,7 C 84 % 1007,1 hPa 0,0 l/m 0 min 0 min 0 W/m 29,0 km/h (5 Bft) 100,00 %
24.12.2020 00:52 9,6 C 8,9 C 7,7 C 84 % 1007,1 hPa 0,0 l/m 0 min 0 min 0 W/m 35,4 km/h (5 Bft) 100,00 %
24.12.2020 00:54 9,6 C 8,9 C 7,7 C 84 % 1007,1 hPa 0,0 l/m 0 min 0 min 0 W/m 29,0 km/h (5 Bft) 100,00 %
24.12.2020 00:56 9,6 C 8,9 C 7,2 C 84 % 1007,1 hPa 0,0 l/m 0 min 0 min 0 W/m 35,4 km/h (5 Bft) 97,87 %
24.12.2020 00:58 9,5 C 8,9 C 7,2 C 84 % 1007,1 hPa 0,0 l/m 0 min 0 min 0 W/m 25,7 km/h (4 Bft) 100,00 %
24.12.2020 01:00 9,5 C 8,9 C 7,2 C 84 % 1007,1 hPa 0,0 l/m 0 min 0 min 0 W/m 35,4 km/h (5 Bft) 100,00 %
24.12.2020 01:02 9,5 C 8,9 C 7,2 C 84 % 1007,1 hPa 0,0 l/m 0 min 0 min 0 W/m 22,5 km/h (4 Bft) 97,87 %
24.12.2020 01:04 9,5 C 8,9 C 7,2 C 84 % 1007,1 hPa 0,0 l/m 0 min 0 min 0 W/m 25,7 km/h (4 Bft) 100,00 %
24.12.2020 01:06 9,5 C 8,9 C 7,2 C 84 % 1007,0 hPa 0,0 l/m 0 min 0 min 0 W/m 22,5 km/h (4 Bft) 100,00 %
24.12.2020 01:08 9,4 C 8,9 C 7,2 C 84 % 1007,0 hPa 0,0 l/m 0 min 0 min 0 W/m 29,0 km/h (5 Bft) 97,87 %
24.12.2020 01:10 9,4 C 8,9 C 7,2 C 84 % 1007,0 hPa 0,0 l/m 0 min 0 min 0 W/m 22,5 km/h (4 Bft) 100,00 %
24.12.2020 01:12 9,4 C 8,3 C 7,2 C 84 % 1007,1 hPa 0,0 l/m 0 min 0 min 0 W/m 16,1 km/h (3 Bft) 100,00 %
24.12.2020 01:14 9,4 C 8,3 C 7,2 C 84 % 1007,1 hPa 0,0 l/m 0 min 0 min 0 W/m 16,1 km/h (3 Bft) 100,00 %
24.12.2020 01:16 9,3 C 8,3 C 7,2 C 84 % 1007,1 hPa 0,0 l/m 0 min 0 min 0 W/m 25,7 km/h (4 Bft) 100,00 %
24.12.2020 01:18 9,3 C 8,3 C 7,2 C 84 % 1007,1 hPa 0,0 l/m 0 min 0 min 0 W/m 25,7 km/h (4 Bft) 100,00 %
24.12.2020 01:20 9,3 C 8,3 C 7,2 C 84 % 1007,1 hPa 0,0 l/m 0 min 0 min 0 W/m 19,3 km/h (3 Bft) 95,74 %
24.12.2020 01:22 9,3 C 8,3 C 7,2 C 84 % 1007,1 hPa 0,0 l/m 0 min 0 min 0 W/m 25,7 km/h (4 Bft) 100,00 %
24.12.2020 01:24 9,3 C 8,3 C 7,2 C 84 % 1007,0 hPa 0,0 l/m 0 min 0 min 0 W/m 12,9 km/h (3 Bft) 100,00 %
24.12.2020 01:26 9,3 C 8,3 C 7,2 C 84 % 1007,0 hPa 0,0 l/m 0 min 0 min 0 W/m 6,4 km/h (2 Bft) 100,00 %
24.12.2020 01:28 9,2 C 8,3 C 7,2 C 84 % 1007,0 hPa 0,0 l/m 0 min 0 min 0 W/m 35,4 km/h (5 Bft) 97,87 %
24.12.2020 01:30 9,2 C 8,3 C 7,2 C 84 % 1006,9 hPa 0,0 l/m 0 min 0 min 0 W/m 22,5 km/h (4 Bft) 97,87 %
24.12.2020 01:32 9,2 C 8,3 C 7,2 C 84 % 1007,0 hPa 0,0 l/m 0 min 0 min 0 W/m 25,7 km/h (4 Bft) 97,92 %
24.12.2020 01:34 9,2 C 8,3 C 7,2 C 84 % 1006,9 hPa 0,0 l/m 0 min 0 min 0 W/m 19,3 km/h (3 Bft) 97,87 %
24.12.2020 01:36 9,2 C 8,3 C 7,2 C 84 % 1006,9 hPa 0,0 l/m 0 min 0 min 0 W/m 19,3 km/h (3 Bft) 95,65 %
24.12.2020 01:38 9,2 C 8,3 C 7,2 C 84 % 1006,9 hPa 0,0 l/m 0 min 0 min 0 W/m 22,5 km/h (4 Bft) 93,62 %
24.12.2020 01:40 9,2 C 8,9 C 7,2 C 84 % 1006,9 hPa 0,0 l/m 0 min 0 min 0 W/m 25,7 km/h (4 Bft) 93,62 %
24.12.2020 01:42 9,2 C 8,9 C 7,2 C 84 % 1006,8 hPa 0,0 l/m 0 min 0 min 0 W/m 16,1 km/h (3 Bft) 95,74 %
24.12.2020 01:44 9,2 C 8,9 C 7,2 C 84 % 1007,0 hPa 0,0 l/m 0 min 0 min 0 W/m 29,0 km/h (5 Bft) 95,74 %
24.12.2020 01:46 9,2 C 8,9 C 7,2 C 84 % 1007,0 hPa 0,0 l/m 0 min 0 min 0 W/m 41,8 km/h (6 Bft) 95,65 %
24.12.2020 01:48 9,2 C 8,9 C 7,2 C 84 % 1006,9 hPa 0,0 l/m 0 min 0 min 0 W/m 38,6 km/h (5 Bft) 95,74 %
24.12.2020 01:50 9,2 C 8,9 C 7,2 C 84 % 1006,9 hPa 0,0 l/m 0 min 0 min 0 W/m 25,7 km/h (4 Bft) 95,74 %
24.12.2020 01:52 9,3 C 8,3 C 7,2 C 84 % 1006,9 hPa 0,0 l/m 0 min 0 min 0 W/m 25,7 km/h (4 Bft) 95,74 %
24.12.2020 01:54 9,3 C 8,9 C 7,2 C 84 % 1006,8 hPa 0,0 l/m 0 min 0 min 0 W/m 22,5 km/h (4 Bft) 95,74 %
24.12.2020 01:56 9,3 C 8,9 C 7,2 C 84 % 1006,8 hPa 0,0 l/m 0 min 0 min 0 W/m 32,2 km/h (5 Bft) 93,62 %
24.12.2020 01:58 9,3 C 8,3 C 7,2 C 84 % 1006,8 hPa 0,0 l/m 0 min 0 min 0 W/m 25,7 km/h (4 Bft) 93,48 %
24.12.2020 02:00 9,3 C 8,3 C 7,2 C 84 % 1006,7 hPa 0,0 l/m 0 min 0 min 0 W/m 19,3 km/h (3 Bft) 97,87 %
24.12.2020 02:02 9,3 C 8,3 C 6,6 C 84 % 1006,7 hPa 0,0 l/m 0 min 0 min 0 W/m 16,1 km/h (3 Bft) 95,83 %
24.12.2020 02:04 9,2 C 8,3 C 7,2 C 84 % 1006,6 hPa 0,0 l/m 0 min 0 min 0 W/m 29,0 km/h (5 Bft) 95,74 %
24.12.2020 02:06 9,2 C 8,3 C 7,2 C 84 % 1006,7 hPa 0,0 l/m 0 min 0 min 0 W/m 29,0 km/h (5 Bft) 95,83 %
24.12.2020 02:08 9,2 C 8,3 C 6,6 C 84 % 1006,7 hPa 0,0 l/m 0 min 0 min 0 W/m 22,5 km/h (4 Bft) 95,65 %
24.12.2020 02:10 9,2 C 8,3 C 6,6 C 84 % 1006,6 hPa 0,0 l/m 0 min 0 min 0 W/m 22,5 km/h (4 Bft) 95,74 %
24.12.2020 02:12 9,1 C 8,3 C 6,6 C 84 % 1006,7 hPa 0,0 l/m 0 min 0 min 0 W/m 19,3 km/h (3 Bft) 95,74 %
24.12.2020 02:14 9,1 C 8,3 C 6,6 C 84 % 1006,7 hPa 0,0 l/m 0 min 0 min 0 W/m 29,0 km/h (5 Bft) 91,49 %
24.12.2020 02:16 9,1 C 8,3 C 6,6 C 84 % 1006,6 hPa 0,0 l/m 0 min 0 min 0 W/m 19,3 km/h (3 Bft) 97,92 %
24.12.2020 02:18 9,1 C 8,3 C 6,6 C 84 % 1006,7 hPa 0,0 l/m 0 min 0 min 0 W/m 22,5 km/h (4 Bft) 97,87 %
24.12.2020 02:20 9,1 C 8,3 C 6,6 C 84 % 1006,5 hPa 0,0 l/m 0 min 0 min 0 W/m 6,4 km/h (2 Bft) 93,62 %
24.12.2020 02:22 9,1 C 8,3 C 6,6 C 84 % 1006,5 hPa 0,0 l/m 0 min 0 min 0 W/m 19,3 km/h (3 Bft) 97,87 %
24.12.2020 02:24 9,1 C 8,3 C 6,6 C 84 % 1006,5 hPa 0,0 l/m 0 min 0 min 0 W/m 29,0 km/h (5 Bft) 100,00 %
24.12.2020 02:26 9,0 C 8,3 C 6,6 C 85 % 1006,5 hPa 0,0 l/m 0 min 0 min 0 W/m 29,0 km/h (5 Bft) 97,87 %
24.12.2020 02:28 9,0 C 8,3 C 6,6 C 84 % 1006,6 hPa 0,0 l/m 0 min 0 min 0 W/m 48,3 km/h (6 Bft) 100,00 %
24.12.2020 02:30 9,0 C 8,3 C 6,6 C 84 % 1006,6 hPa 0,0 l/m 0 min 0 min 0 W/m 32,2 km/h (5 Bft) 100,00 %
24.12.2020 02:32 9,0 C 8,3 C 6,6 C 84 % 1006,6 hPa 0,0 l/m 0 min 0 min 0 W/m 38,6 km/h (5 Bft) 100,00 %
24.12.2020 02:34 9,0 C 8,3 C 6,6 C 84 % 1006,6 hPa 0,0 l/m 0 min 0 min 0 W/m 29,0 km/h (5 Bft) 100,00 %
24.12.2020 02:36 9,1 C 8,3 C 6,6 C 84 % 1006,5 hPa 0,0 l/m 0 min 0 min 0 W/m 19,3 km/h (3 Bft) 100,00 %
24.12.2020 02:38 9,1 C 8,3 C 6,6 C 84 % 1006,6 hPa 0,0 l/m 0 min 0 min 0 W/m 25,7 km/h (4 Bft) 100,00 %
24.12.2020 02:40 9,1 C 8,3 C 6,6 C 84 % 1006,6 hPa 0,0 l/m 0 min 0 min 0 W/m 25,7 km/h (4 Bft) 100,00 %
24.12.2020 02:42 9,1 C 8,3 C 6,6 C 84 % 1006,5 hPa 0,0 l/m 0 min 0 min 0 W/m 22,5 km/h (4 Bft) 100,00 %
24.12.2020 02:44 9,0 C 8,3 C 6,6 C 84 % 1006,5 hPa 0,0 l/m 0 min 0 min 0 W/m 16,1 km/h (3 Bft) 100,00 %
24.12.2020 02:46 9,0 C 8,3 C 6,6 C 84 % 1006,6 hPa 0,0 l/m 0 min 0 min 0 W/m 29,0 km/h (5 Bft) 100,00 %
24.12.2020 02:48 9,1 C 8,3 C 6,6 C 84 % 1006,6 hPa 0,0 l/m 0 min 0 min 0 W/m 29,0 km/h (5 Bft) 97,87 %
24.12.2020 02:50 9,1 C 8,3 C 6,6 C 84 % 1006,6 hPa 0,0 l/m 0 min 0 min 0 W/m 29,0 km/h (5 Bft) 100,00 %
24.12.2020 02:52 9,1 C 8,3 C 6,6 C 84 % 1006,5 hPa 0,0 l/m 0 min 0 min 0 W/m 6,4 km/h (2 Bft) 100,00 %
24.12.2020 02:54 9,1 C 8,3 C 6,6 C 84 % 1006,6 hPa 0,0 l/m 0 min 0 min 0 W/m 41,8 km/h (6 Bft) 100,00 %
24.12.2020 02:56 9,1 C 8,3 C 6,6 C 84 % 1006,5 hPa 0,0 l/m 0 min 0 min 0 W/m 25,7 km/h (4 Bft) 95,65 %
24.12.2020 02:58 9,1 C 8,3 C 6,6 C 84 % 1006,5 hPa 0,0 l/m 0 min 0 min 0 W/m 19,3 km/h (3 Bft) 100,00 %
24.12.2020 03:00 9,1 C 8,3 C 6,6 C 84 % 1006,5 hPa 0,0 l/m 0 min 0 min 0 W/m 19,3 km/h (3 Bft) 97,87 %
24.12.2020 03:02 9,1 C 8,3 C 6,6 C 84 % 1006,6 hPa 0,0 l/m 0 min 0 min 0 W/m 38,6 km/h (5 Bft) 97,92 %
24.12.2020 03:04 9,1 C 8,3 C 6,6 C 84 % 1006,6 hPa 0,0 l/m 0 min 0 min 0 W/m 35,4 km/h (5 Bft) 100,00 %
24.12.2020 03:06 9,1 C 8,3 C 6,6 C 84 % 1006,6 hPa 0,0 l/m 0 min 0 min 0 W/m 6,4 km/h (2 Bft) 100,00 %
24.12.2020 03:08 9,1 C 8,3 C 6,6 C 84 % 1006,6 hPa 0,0 l/m 0 min 0 min 0 W/m 35,4 km/h (5 Bft) 100,00 %
24.12.2020 03:10 9,1 C 8,3 C 6,6 C 84 % 1006,6 hPa 0,0 l/m 0 min 0 min 0 W/m 38,6 km/h (5 Bft) 100,00 %
24.12.2020 03:12 9,1 C 8,3 C 6,6 C 84 % 1006,5 hPa 0,0 l/m 0 min 0 min 0 W/m 35,4 km/h (5 Bft) 100,00 %
24.12.2020 03:14 9,1 C 8,3 C 6,6 C 84 % 1006,5 hPa 0,0 l/m 0 min 0 min 0 W/m 35,4 km/h (5 Bft) 100,00 %
24.12.2020 03:16 9,1 C 8,3 C 6,6 C 84 % 1006,5 hPa 0,0 l/m 0 min 0 min 0 W/m 32,2 km/h (5 Bft) 100,00 %
24.12.2020 03:18 9,1 C 8,3 C 6,6 C 84 % 1006,6 hPa 0,0 l/m 0 min 0 min 0 W/m 32,2 km/h (5 Bft) 100,00 %
24.12.2020 03:20 9,1 C 8,3 C 6,6 C 84 % 1006,5 hPa 0,0 l/m 0 min 0 min 0 W/m 29,0 km/h (5 Bft) 100,00 %
24.12.2020 03:22 9,1 C 8,3 C 6,1 C 84 % 1006,6 hPa 0,0 l/m 0 min 0 min 0 W/m 25,7 km/h (4 Bft) 100,00 %
24.12.2020 03:24 9,1 C 8,3 C 6,1 C 84 % 1006,5 hPa 0,0 l/m 0 min 2 min 0 W/m 25,7 km/h (4 Bft) 100,00 %
24.12.2020 03:26 9,0 C 7,8 C 6,1 C 84 % 1006,5 hPa 0,0 l/m 0 min 2 min 0 W/m 25,7 km/h (4 Bft) 97,87 %
24.12.2020 03:28 9,0 C 7,8 C 6,1 C 84 % 1006,5 hPa 0,0 l/m 0 min 0 min 0 W/m 25,7 km/h (4 Bft) 100,00 %
24.12.2020 03:30 9,0 C 8,3 C 6,1 C 84 % 1006,5 hPa 0,0 l/m 0 min 0 min 0 W/m 38,6 km/h (5 Bft) 100,00 %
24.12.2020 03:32 9,0 C 8,3 C 6,1 C 84 % 1006,5 hPa 0,0 l/m 0 min 0 min 0 W/m 29,0 km/h (5 Bft) 100,00 %
24.12.2020 03:34 9,0 C 8,3 C 6,1 C 84 % 1006,5 hPa 0,0 l/m 0 min 0 min 0 W/m 41,8 km/h (6 Bft) 100,00 %
24.12.2020 03:36 9,0 C 8,3 C 6,6 C 84 % 1006,5 hPa 0,0 l/m 0 min 0 min 0 W/m 29,0 km/h (5 Bft) 100,00 %
24.12.2020 03:38 9,0 C 7,8 C 6,1 C 84 % 1006,5 hPa 0,0 l/m 0 min 2 min 0 W/m 19,3 km/h (3 Bft) 100,00 %
24.12.2020 03:40 9,0 C 7,8 C 6,1 C 85 % 1006,5 hPa 0,0 l/m 0 min 2 min 0 W/m 9,7 km/h (2 Bft) 100,00 %
24.12.2020 03:42 8,9 C 7,8 C 5,5 C 85 % 1006,4 hPa 0,0 l/m 0 min 2 min 0 W/m 32,2 km/h (5 Bft) 100,00 %
24.12.2020 03:44 8,9 C 7,8 C 5,5 C 85 % 1006,4 hPa 0,0 l/m 0 min 2 min 0 W/m 38,6 km/h (5 Bft) 100,00 %
24.12.2020 03:46 8,9 C 7,8 C 6,1 C 85 % 1006,4 hPa 0,0 l/m 0 min 0 min 0 W/m 48,3 km/h (6 Bft) 100,00 %
24.12.2020 03:48 8,9 C 8,3 C 6,1 C 85 % 1006,3 hPa 0,0 l/m 0 min 0 min 0 W/m 25,7 km/h (4 Bft) 97,87 %
24.12.2020 03:50 8,9 C 8,3 C 6,1 C 85 % 1006,3 hPa 0,0 l/m 0 min 0 min 0 W/m 25,7 km/h (4 Bft) 97,87 %
24.12.2020 03:52 8,9 C 8,3 C 6,1 C 85 % 1006,3 hPa 0,0 l/m 0 min 0 min 0 W/m 19,3 km/h (3 Bft) 97,87 %
24.12.2020 03:54 8,9 C 8,3 C 6,1 C 85 % 1006,3 hPa 0,0 l/m 0 min 0 min 0 W/m 29,0 km/h (5 Bft) 97,87 %
24.12.2020 03:56 8,8 C 8,3 C 6,1 C 85 % 1006,4 hPa 0,0 l/m 0 min 0 min 0 W/m 38,6 km/h (5 Bft) 97,87 %
24.12.2020 03:58 8,8 C 8,3 C 6,1 C 84 % 1006,3 hPa 0,0 l/m 0 min 0 min 0 W/m 48,3 km/h (6 Bft) 97,83 %
24.12.2020 04:00 8,8 C 8,3 C 6,1 C 84 % 1006,3 hPa 0,0 l/m 0 min 0 min 0 W/m 22,5 km/h (4 Bft) 97,87 %
24.12.2020 04:02 8,8 C 8,3 C 6,1 C 84 % 1006,3 hPa 0,0 l/m 0 min 0 min 0 W/m 35,4 km/h (5 Bft) 100,00 %
24.12.2020 04:04 8,8 C 8,3 C 6,1 C 84 % 1006,4 hPa 0,0 l/m 0 min 0 min 0 W/m 35,4 km/h (5 Bft) 97,87 %
24.12.2020 04:06 8,8 C 8,3 C 6,1 C 84 % 1006,4 hPa 0,0 l/m 0 min 0 min 0 W/m 25,7 km/h (4 Bft) 93,48 %
24.12.2020 04:08 8,8 C 8,3 C 6,1 C 84 % 1006,4 hPa 0,0 l/m 0 min 0 min 0 W/m 19,3 km/h (3 Bft) 95,74 %
24.12.2020 04:10 8,8 C 8,3 C 6,1 C 84 % 1006,4 hPa 0,0 l/m 0 min 0 min 0 W/m 19,3 km/h (3 Bft) 97,96 %
24.12.2020 04:12 8,8 C 8,3 C 6,1 C 84 % 1006,4 hPa 0,0 l/m 0 min 0 min 0 W/m 32,2 km/h (5 Bft) 97,87 %
24.12.2020 04:14 8,8 C 7,8 C 6,1 C 84 % 1006,4 hPa 0,0 l/m 0 min 0 min 0 W/m 19,3 km/h (3 Bft) 95,74 %
24.12.2020 04:16 8,8 C 7,8 C 6,1 C 85 % 1006,4 hPa 0,0 l/m 0 min 0 min 0 W/m 22,5 km/h (4 Bft) 91,30 %
24.12.2020 04:18 8,8 C 7,8 C 6,1 C 85 % 1006,3 hPa 0,0 l/m 0 min 0 min 0 W/m 29,0 km/h (5 Bft) 95,74 %
24.12.2020 04:20 8,8 C 7,8 C 6,1 C 85 % 1006,4 hPa 0,0 l/m 0 min 0 min 0 W/m 22,5 km/h (4 Bft) 93,62 %
24.12.2020 04:22 8,7 C 8,3 C 6,1 C 85 % 1006,4 hPa 0,0 l/m 0 min 0 min 0 W/m 35,4 km/h (5 Bft) 93,62 %
24.12.2020 04:24 8,7 C 8,3 C 6,1 C 85 % 1006,3 hPa 0,0 l/m 0 min 0 min 0 W/m 29,0 km/h (5 Bft) 95,74 %
24.12.2020 04:26 8,7 C 7,8 C 6,1 C 85 % 1006,3 hPa 0,0 l/m 0 min 0 min 0 W/m 29,0 km/h (5 Bft) 91,49 %
24.12.2020 04:28 8,7 C 7,8 C 6,1 C 85 % 1006,3 hPa 0,0 l/m 0 min 0 min 0 W/m 22,5 km/h (4 Bft) 91,30 %
24.12.2020 04:30 8,7 C 7,8 C 6,1 C 85 % 1006,3 hPa 0,0 l/m 0 min 0 min 0 W/m 29,0 km/h (5 Bft) 93,62 %
24.12.2020 04:32 8,6 C 7,8 C 6,1 C 85 % 1006,3 hPa 0,0 l/m 0 min 0 min 0 W/m 25,7 km/h (4 Bft) 93,75 %
24.12.2020 04:34 8,6 C 7,8 C 6,1 C 85 % 1006,3 hPa 0,0 l/m 0 min 0 min 0 W/m 19,3 km/h (3 Bft) 91,49 %
24.12.2020 04:36 8,6 C 7,8 C 6,1 C 85 % 1006,2 hPa 0,0 l/m 0 min 0 min 0 W/m 19,3 km/h (3 Bft) 93,62 %
24.12.2020 04:38 8,6 C 7,8 C 6,1 C 85 % 1006,3 hPa 0,0 l/m 0 min 0 min 0 W/m 19,3 km/h (3 Bft) 93,62 %
24.12.2020 04:40 8,6 C 7,8 C 6,1 C 85 % 1006,3 hPa 0,0 l/m 0 min 0 min 0 W/m 32,2 km/h (5 Bft) 93,48 %
24.12.2020 04:42 8,6 C 7,8 C 6,1 C 85 % 1006,2 hPa 0,0 l/m 0 min 0 min 0 W/m 35,4 km/h (5 Bft) 91,49 %
24.12.2020 04:44 8,6 C 7,8 C 6,1 C 85 % 1006,1 hPa 0,0 l/m 0 min 0 min 0 W/m 25,7 km/h (4 Bft) 93,62 %
24.12.2020 04:46 8,6 C 7,8 C 6,1 C 85 % 1006,2 hPa 0,0 l/m 0 min 0 min 0 W/m 25,7 km/h (4 Bft) 93,62 %
24.12.2020 04:48 8,6 C 7,8 C 6,1 C 86 % 1006,2 hPa 0,0 l/m 0 min 0 min 0 W/m 25,7 km/h (4 Bft) 93,62 %
24.12.2020 04:50 8,5 C 7,8 C 5,5 C 86 % 1006,2 hPa 0,0 l/m 0 min 0 min 0 W/m 29,0 km/h (5 Bft) 89,36 %
24.12.2020 04:52 8,5 C 7,8 C 5,5 C 86 % 1006,2 hPa 0,0 l/m 0 min 0 min 0 W/m 25,7 km/h (4 Bft) 91,30 %
24.12.2020 04:54 8,5 C 7,8 C 5,5 C 86 % 1006,1 hPa 0,0 l/m 0 min 0 min 0 W/m 32,2 km/h (5 Bft) 93,62 %
24.12.2020 04:56 8,5 C 7,8 C 5,5 C 86 % 1006,1 hPa 0,0 l/m 0 min 0 min 0 W/m 38,6 km/h (5 Bft) 93,62 %
24.12.2020 04:58 8,5 C 7,2 C 5,5 C 86 % 1006,0 hPa 0,0 l/m 0 min 2 min 0 W/m 29,0 km/h (5 Bft) 93,62 %
24.12.2020 05:00 8,5 C 7,2 C 4,9 C 87 % 1006,0 hPa 0,0 l/m 0 min 2 min 0 W/m 38,6 km/h (5 Bft) 91,49 %
24.12.2020 05:02 8,5 C 7,2 C 4,9 C 87 % 1006,1 hPa 0,0 l/m 0 min 2 min 0 W/m 16,1 km/h (3 Bft) 95,74 %
24.12.2020 05:04 8,4 C 6,7 C 4,9 C 87 % 1006,0 hPa 0,0 l/m 0 min 2 min 0 W/m 29,0 km/h (5 Bft) 95,65 %
24.12.2020 05:06 8,4 C 6,7 C 4,9 C 88 % 1006,0 hPa 0,0 l/m 0 min 2 min 0 W/m 25,7 km/h (4 Bft) 97,87 %
24.12.2020 05:08 8,3 C 6,7 C 4,9 C 88 % 1006,1 hPa 0,0 l/m 0 min 2 min 0 W/m 22,5 km/h (4 Bft) 100,00 %
24.12.2020 05:10 8,3 C 6,7 C 4,9 C 88 % 1006,1 hPa 0,0 l/m 0 min 2 min 0 W/m 16,1 km/h (3 Bft) 97,87 %
24.12.2020 05:12 8,3 C 6,7 C 4,9 C 88 % 1006,1 hPa 0,0 l/m 0 min 0 min 0 W/m 29,0 km/h (5 Bft) 100,00 %
24.12.2020 05:14 8,2 C 6,7 C 4,9 C 89 % 1006,1 hPa 0,0 l/m 0 min 0 min 0 W/m 16,1 km/h (3 Bft) 100,00 %
24.12.2020 05:16 8,1 C 6,7 C 4,9 C 89 % 1006,1 hPa 0,0 l/m 0 min 0 min 0 W/m 22,5 km/h (4 Bft) 97,87 %
24.12.2020 05:18 8,1 C 6,7 C 4,4 C 89 % 1006,2 hPa 0,0 l/m 0 min 0 min 0 W/m 22,5 km/h (4 Bft) 97,87 %
24.12.2020 05:20 8,1 C 6,7 C 4,4 C 89 % 1006,3 hPa 0,0 l/m 0 min 0 min 0 W/m 3,2 km/h (1 Bft) 97,87 %
24.12.2020 05:22 8,0 C 6,7 C 4,9 C 89 % 1006,2 hPa 0,0 l/m 0 min 0 min 0 W/m 12,9 km/h (3 Bft) 100,00 %
24.12.2020 05:24 8,0 C 7,2 C 4,9 C 89 % 1006,3 hPa 0,0 l/m 0 min 0 min 0 W/m 16,1 km/h (3 Bft) 95,74 %
24.12.2020 05:26 8,0 C 7,2 C 4,9 C 89 % 1006,3 hPa 0,0 l/m 0 min 0 min 0 W/m 16,1 km/h (3 Bft) 100,00 %
24.12.2020 05:28 8,0 C 7,2 C 4,9 C 89 % 1006,3 hPa 0,0 l/m 0 min 0 min 0 W/m 16,1 km/h (3 Bft) 97,87 %
24.12.2020 05:30 8,0 C 7,2 C 4,9 C 89 % 1006,2 hPa 0,0 l/m 0 min 0 min 0 W/m 0,0 km/h (0 Bft) 100,00 %
24.12.2020 05:32 8,0 C 7,2 C 4,9 C 90 % 1006,2 hPa 0,0 l/m 0 min 0 min 0 W/m 16,1 km/h (3 Bft) 100,00 %
24.12.2020 05:34 8,0 C 7,2 C 4,9 C 89 % 1006,2 hPa 0,0 l/m 0 min 2 min 0 W/m 12,9 km/h (3 Bft) 100,00 %
24.12.2020 05:36 8,0 C 6,7 C 4,9 C 90 % 1006,2 hPa 0,0 l/m 0 min 2 min 0 W/m 3,2 km/h (1 Bft) 100,00 %
24.12.2020 05:38 8,0 C 6,1 C 4,9 C 90 % 1006,2 hPa 0,0 l/m 0 min 2 min 0 W/m 3,2 km/h (1 Bft) 100,00 %
24.12.2020 05:40 8,0 C 6,1 C 4,9 C 90 % 1006,2 hPa 0,0 l/m 0 min 2 min 0 W/m 12,9 km/h (3 Bft) 100,00 %
24.12.2020 05:42 7,9 C 6,1 C 4,4 C 90 % 1006,2 hPa 0,0 l/m 0 min 2 min 0 W/m 6,4 km/h (2 Bft) 100,00 %
24.12.2020 05:44 7,9 C 6,1 C 4,4 C 90 % 1006,2 hPa 0,0 l/m 0 min 2 min 0 W/m 0,0 km/h (0 Bft) 100,00 %
24.12.2020 05:46 7,9 C 6,1 C 4,4 C 90 % 1006,2 hPa 0,2 l/m 0 min 2 min 0 W/m 0,0 km/h (0 Bft) 100,00 %
24.12.2020 05:48 7,9 C 6,1 C 4,4 C 91 % 1006,3 hPa 0,0 l/m 0 min 2 min 0 W/m 0,0 km/h (0 Bft) 100,00 %
24.12.2020 05:50 7,9 C 6,1 C 4,4 C 91 % 1006,3 hPa 0,2 l/m 0 min 2 min 0 W/m 16,1 km/h (3 Bft) 95,74 %
24.12.2020 05:52 7,9 C 6,1 C 4,4 C 91 % 1006,2 hPa 0,0 l/m 0 min 2 min 0 W/m 19,3 km/h (3 Bft) 100,00 %
24.12.2020 05:54 7,9 C 6,1 C 4,4 C 91 % 1006,2 hPa 0,0 l/m 0 min 2 min 0 W/m 22,5 km/h (4 Bft) 100,00 %
24.12.2020 05:56 7,9 C 6,1 C 4,4 C 91 % 1006,2 hPa 0,0 l/m 0 min 0 min 0 W/m 6,4 km/h (2 Bft) 100,00 %
24.12.2020 05:58 7,8 C 6,1 C 4,4 C 91 % 1006,2 hPa 0,0 l/m 0 min 0 min 0 W/m 0,0 km/h (0 Bft) 100,00 %
24.12.2020 06:00 7,8 C 6,1 C 4,4 C 92 % 1006,2 hPa 0,0 l/m 0 min 2 min 0 W/m 6,4 km/h (2 Bft) 97,87 %
24.12.2020 06:02 7,8 C 6,1 C 4,4 C 92 % 1006,2 hPa 0,0 l/m 0 min 2 min 0 W/m 0,0 km/h (0 Bft) 100,00 %
24.12.2020 06:04 7,8 C 6,1 C 4,4 C 92 % 1006,2 hPa 0,2 l/m 0 min 2 min 0 W/m 6,4 km/h (2 Bft) 100,00 %
24.12.2020 06:08 7,8 C 6,1 C 4,4 C 92 % 1006,2 hPa 0,0 l/m 0 min 4 min 0 W/m 16,1 km/h (3 Bft) 100,00 %
24.12.2020 06:10 7,7 C 6,1 C 4,4 C 92 % 1006,2 hPa 0,0 l/m 0 min 2 min 0 W/m 3,2 km/h (1 Bft) 100,00 %
24.12.2020 06:12 7,7 C 6,1 C 4,4 C 92 % 1006,2 hPa 0,0 l/m 0 min 2 min 0 W/m 16,1 km/h (3 Bft) 97,87 %
24.12.2020 06:14 7,7 C 6,1 C 4,4 C 93 % 1006,2 hPa 0,0 l/m 0 min 0 min 0 W/m 12,9 km/h (3 Bft) 100,00 %
24.12.2020 06:16 7,6 C 6,1 C 4,4 C 93 % 1006,1 hPa 0,0 l/m 0 min 2 min 0 W/m 19,3 km/h (3 Bft) 100,00 %
24.12.2020 06:18 7,6 C 6,1 C 4,4 C 93 % 1006,1 hPa 0,0 l/m 0 min 0 min 0 W/m 6,4 km/h (2 Bft) 100,00 %
24.12.2020 06:20 7,6 C 6,1 C 4,4 C 93 % 1006,1 hPa 0,0 l/m 0 min 0 min 0 W/m 3,2 km/h (1 Bft) 100,00 %
24.12.2020 06:22 7,6 C 6,1 C 4,4 C 93 % 1006,1 hPa 0,0 l/m 0 min 0 min 0 W/m 3,2 km/h (1 Bft) 100,00 %
24.12.2020 06:24 7,6 C 6,1 C 4,4 C 93 % 1006,1 hPa 0,0 l/m 0 min 0 min 0 W/m 12,9 km/h (3 Bft) 100,00 %
24.12.2020 06:26 7,6 C 6,1 C 4,4 C 93 % 1006,1 hPa 0,0 l/m 0 min 0 min 0 W/m 0,0 km/h (0 Bft) 100,00 %
24.12.2020 06:28 7,6 C 6,1 C 4,4 C 93 % 1006,1 hPa 0,0 l/m 0 min 0 min 0 W/m 12,9 km/h (3 Bft) 100,00 %
24.12.2020 06:30 7,6 C 6,1 C 4,9 C 93 % 1006,2 hPa 0,0 l/m 0 min 0 min 0 W/m 16,1 km/h (3 Bft) 100,00 %
24.12.2020 06:32 7,5 C 6,1 C 4,9 C 94 % 1006,2 hPa 0,0 l/m 0 min 0 min 0 W/m 29,0 km/h (5 Bft) 100,00 %
24.12.2020 06:34 7,5 C 6,1 C 4,9 C 94 % 1006,2 hPa 0,0 l/m 0 min 0 min 0 W/m 25,7 km/h (4 Bft) 100,00 %
24.12.2020 06:36 7,5 C 6,7 C 4,9 C 94 % 1006,2 hPa 0,0 l/m 0 min 0 min 0 W/m 16,1 km/h (3 Bft) 100,00 %
24.12.2020 06:38 7,5 C 6,7 C 4,9 C 94 % 1006,1 hPa 0,0 l/m 0 min 0 min 0 W/m 12,9 km/h (3 Bft) 100,00 %
24.12.2020 06:40 7,5 C 6,7 C 4,9 C 94 % 1006,1 hPa 0,0 l/m 0 min 0 min 0 W/m 16,1 km/h (3 Bft) 100,00 %
24.12.2020 06:42 7,5 C 6,7 C 4,9 C 94 % 1006,1 hPa 0,0 l/m 0 min 0 min 0 W/m 12,9 km/h (3 Bft) 100,00 %
24.12.2020 06:44 7,5 C 6,7 C 4,9 C 94 % 1006,1 hPa 0,0 l/m 0 min 0 min 0 W/m 6,4 km/h (2 Bft) 100,00 %
24.12.2020 06:46 7,5 C 6,7 C 4,9 C 94 % 1006,0 hPa 0,0 l/m 0 min 0 min 0 W/m 3,2 km/h (1 Bft) 100,00 %
24.12.2020 06:48 7,5 C 6,1 C 4,9 C 94 % 1006,0 hPa 0,0 l/m 0 min 0 min 0 W/m 3,2 km/h (1 Bft) 100,00 %
24.12.2020 06:50 7,5 C 6,1 C 4,9 C 94 % 1006,0 hPa 0,0 l/m 0 min 0 min 0 W/m 0,0 km/h (0 Bft) 100,00 %
24.12.2020 06:52 7,5 C 6,7 C 4,9 C 94 % 1006,1 hPa 0,0 l/m 0 min 0 min 0 W/m 0,0 km/h (0 Bft) 95,65 %
24.12.2020 06:54 7,5 C 6,7 C 4,9 C 94 % 1006,1 hPa 0,0 l/m 0 min 0 min 0 W/m 12,9 km/h (3 Bft) 100,00 %
24.12.2020 06:56 7,5 C 6,1 C 4,9 C 94 % 1006,1 hPa 0,0 l/m 0 min 0 min 0 W/m 6,4 km/h (2 Bft) 100,00 %
24.12.2020 06:58 7,5 C 6,1 C 4,9 C 94 % 1006,0 hPa 0,0 l/m 0 min 0 min 0 W/m 6,4 km/h (2 Bft) 97,87 %
24.12.2020 07:00 7,5 C 6,1 C 4,9 C 94 % 1006,1 hPa 0,0 l/m 0 min 0 min 0 W/m 3,2 km/h (1 Bft) 97,87 %
24.12.2020 07:02 7,5 C 6,1 C 4,9 C 94 % 1006,1 hPa 0,0 l/m 0 min 0 min 0 W/m 6,4 km/h (2 Bft) 98,11 %
24.12.2020 07:04 7,5 C 6,1 C 4,9 C 94 % 1006,1 hPa 0,0 l/m 0 min 0 min 0 W/m 0,0 km/h (0 Bft) 97,87 %
24.12.2020 07:06 7,4 C 6,1 C 4,9 C 94 % 1006,2 hPa 0,0 l/m 0 min 0 min 0 W/m 6,4 km/h (2 Bft) 97,87 %
24.12.2020 07:08 7,4 C 6,1 C 4,9 C 94 % 1006,1 hPa 0,0 l/m 0 min 0 min 0 W/m 12,9 km/h (3 Bft) 97,83 %
24.12.2020 07:10 7,4 C 6,1 C 4,9 C 94 % 1006,1 hPa 0,0 l/m 0 min 0 min 0 W/m 0,0 km/h (0 Bft) 95,74 %
24.12.2020 07:12 7,4 C 6,1 C 4,9 C 94 % 1006,1 hPa 0,0 l/m 0 min 0 min 0 W/m 3,2 km/h (1 Bft) 93,62 %
24.12.2020 07:14 7,4 C 6,1 C 4,9 C 94 % 1006,2 hPa 0,0 l/m 0 min 0 min 0 W/m 12,9 km/h (3 Bft) 93,62 %
24.12.2020 07:16 7,4 C 6,1 C 4,9 C 95 % 1006,2 hPa 0,0 l/m 0 min 0 min 0 W/m 3,2 km/h (1 Bft) 95,74 %
24.12.2020 07:18 7,4 C 6,1 C 4,9 C 95 % 1006,1 hPa 0,0 l/m 0 min 0 min 0 W/m 16,1 km/h (3 Bft) 95,74 %
24.12.2020 07:20 7,4 C 6,1 C 4,9 C 95 % 1006,1 hPa 0,0 l/m 0 min 0 min 0 W/m 6,4 km/h (2 Bft) 93,48 %
24.12.2020 07:22 7,4 C 6,1 C 4,9 C 95 % 1006,1 hPa 0,0 l/m 0 min 0 min 0 W/m 6,4 km/h (2 Bft) 93,62 %
24.12.2020 07:24 7,4 C 6,1 C 4,9 C 95 % 1006,2 hPa 0,0 l/m 0 min 0 min 0 W/m 0,0 km/h (0 Bft) 97,56 %
24.12.2020 07:26 7,4 C 6,1 C 4,9 C 95 % 1006,1 hPa 0,0 l/m 0 min 0 min 0 W/m 0,0 km/h (0 Bft) 93,48 %
24.12.2020 07:28 7,4 C 6,1 C 4,9 C 95 % 1006,2 hPa 0,0 l/m 0 min 0 min 0 W/m 0,0 km/h (0 Bft) 95,74 %
24.12.2020 07:30 7,4 C 6,1 C 4,9 C 95 % 1006,2 hPa 0,0 l/m 0 min 0 min 0 W/m 0,0 km/h (0 Bft) 93,62 %
24.12.2020 07:32 7,4 C 6,1 C 4,9 C 95 % 1006,2 hPa 0,0 l/m 0 min 0 min 0 W/m 0,0 km/h (0 Bft) 93,62 %
24.12.2020 07:34 7,4 C 6,1 C 4,9 C 95 % 1006,2 hPa 0,0 l/m 0 min 0 min 0 W/m 0,0 km/h (0 Bft) 95,74 %
24.12.2020 07:36 7,4 C 6,1 C 4,9 C 95 % 1006,2 hPa 0,0 l/m 0 min 0 min 0 W/m 0,0 km/h (0 Bft) 95,74 %
24.12.2020 07:38 7,4 C 6,1 C 4,9 C 95 % 1006,2 hPa 0,0 l/m 0 min 0 min 0 W/m 0,0 km/h (0 Bft) 95,65 %
24.12.2020 07:40 7,4 C 6,1 C 4,9 C 95 % 1006,2 hPa 0,0 l/m 0 min 0 min 0 W/m 0,0 km/h (0 Bft) 95,74 %
24.12.2020 07:42 7,4 C 6,1 C 4,9 C 95 % 1006,2 hPa 0,0 l/m 0 min 0 min 0 W/m 12,9 km/h (3 Bft) 97,87 %
24.12.2020 07:44 7,4 C 6,1 C 4,9 C 95 % 1006,2 hPa 0,0 l/m 0 min 0 min 0 W/m 3,2 km/h (1 Bft) 95,74 %
24.12.2020 07:46 7,4 C 6,1 C 4,9 C 95 % 1006,2 hPa 0,0 l/m 0 min 0 min 0 W/m 12,9 km/h (3 Bft) 97,87 %
24.12.2020 07:48 7,4 C 6,1 C 4,9 C 95 % 1006,3 hPa 0,0 l/m 0 min 0 min 0 W/m 0,0 km/h (0 Bft) 97,87 %
24.12.2020 07:50 7,3 C 6,1 C 4,9 C 95 % 1006,3 hPa 0,0 l/m 0 min 0 min 0 W/m 0,0 km/h (0 Bft) 97,83 %
24.12.2020 07:52 7,3 C 6,1 C 4,9 C 95 % 1006,3 hPa 0,0 l/m 0 min 0 min 0 W/m 0,0 km/h (0 Bft) 95,74 %
24.12.2020 07:54 7,3 C 6,1 C 4,9 C 95 % 1006,4 hPa 0,0 l/m 0 min 0 min 0 W/m 3,2 km/h (1 Bft) 97,87 %
24.12.2020 07:56 7,3 C 6,1 C 4,9 C 95 % 1006,5 hPa 0,0 l/m 0 min 0 min 0 W/m 0,0 km/h (0 Bft) 97,87 %
24.12.2020 07:58 7,3 C 6,1 C 4,9 C 95 % 1006,4 hPa 0,0 l/m 0 min 0 min 0 W/m 0,0 km/h (0 Bft) 98,00 %
24.12.2020 08:00 7,3 C 6,1 C 4,9 C 95 % 1006,4 hPa 0,0 l/m 0 min 0 min 0 W/m 0,0 km/h (0 Bft) 95,65 %
24.12.2020 08:02 7,3 C 6,1 C 4,9 C 95 % 1006,4 hPa 0,0 l/m 0 min 0 min 0 W/m 3,2 km/h (1 Bft) 98,00 %
24.12.2020 08:04 7,3 C 6,1 C 4,9 C 95 % 1006,4 hPa 0,0 l/m 0 min 0 min 0 W/m 0,0 km/h (0 Bft) 100,00 %
24.12.2020 08:06 7,3 C 6,1 C 4,9 C 95 % 1006,5 hPa 0,0 l/m 0 min 0 min 0 W/m 0,0 km/h (0 Bft) 100,00 %
24.12.2020 08:08 7,3 C 6,1 C 4,9 C 95 % 1006,5 hPa 0,0 l/m 0 min 0 min 0 W/m 0,0 km/h (0 Bft) 100,00 %
24.12.2020 08:10 7,3 C 6,1 C 4,9 C 95 % 1006,6 hPa 0,0 l/m 0 min 0 min 0 W/m 0,0 km/h (0 Bft) 100,00 %
24.12.2020 08:12 7,3 C 6,1 C 4,9 C 95 % 1006,6 hPa 0,0 l/m 0 min 0 min 0 W/m 0,0 km/h (0 Bft) 100,00 %
24.12.2020 08:14 7,3 C 6,1 C 4,9 C 95 % 1006,6 hPa 0,0 l/m 0 min 0 min 0 W/m 0,0 km/h (0 Bft) 100,00 %
24.12.2020 08:16 7,3 C 6,1 C 4,9 C 95 % 1006,7 hPa 0,0 l/m 0 min 0 min 0 W/m 0,0 km/h (0 Bft) 100,00 %
24.12.2020 08:18 7,3 C 6,1 C 4,9 C 95 % 1006,7 hPa 0,0 l/m 0 min 0 min 0 W/m 0,0 km/h (0 Bft) 100,00 %
24.12.2020 08:20 7,3 C 6,1 C 4,9 C 95 % 1006,8 hPa 0,0 l/m 0 min 0 min 0 W/m 3,2 km/h (1 Bft) 100,00 %
24.12.2020 08:22 7,2 C 6,1 C 4,9 C 95 % 1006,9 hPa 0,0 l/m 0 min 0 min 0 W/m 6,4 km/h (2 Bft) 100,00 %
24.12.2020 08:24 7,2 C 6,1 C 4,9 C 95 % 1006,9 hPa 0,0 l/m 0 min 0 min 0 W/m 0,0 km/h (0 Bft) 100,00 %
24.12.2020 08:26 7,2 C 6,1 C 4,9 C 95 % 1006,9 hPa 0,0 l/m 0 min 0 min 0 W/m 0,0 km/h (0 Bft) 100,00 %
24.12.2020 08:28 7,3 C 6,1 C 4,9 C 95 % 1006,9 hPa 0,0 l/m 0 min 0 min 0 W/m 0,0 km/h (0 Bft) 100,00 %
24.12.2020 08:30 7,3 C 6,1 C 4,9 C 95 % 1006,9 hPa 0,0 l/m 0 min 0 min 0 W/m 0,0 km/h (0 Bft) 100,00 %
24.12.2020 08:32 7,3 C 6,1 C 4,9 C 95 % 1007,0 hPa 0,0 l/m 0 min 0 min 0 W/m 0,0 km/h (0 Bft) 100,00 %
24.12.2020 08:34 7,3 C 6,1 C 4,9 C 95 % 1007,0 hPa 0,0 l/m 0 min 0 min 0 W/m 0,0 km/h (0 Bft) 98,36 %
24.12.2020 08:36 7,3 C 6,1 C 4,9 C 95 % 1007,0 hPa 0,0 l/m 0 min 0 min 0 W/m 0,0 km/h (0 Bft) 100,00 %
24.12.2020 08:38 7,3 C 6,1 C 4,9 C 95 % 1007,0 hPa 0,0 l/m 0 min 0 min 0 W/m 0,0 km/h (0 Bft) 100,00 %
24.12.2020 08:40 7,3 C 6,7 C 4,9 C 95 % 1007,1 hPa 0,0 l/m 0 min 0 min 0 W/m 0,0 km/h (0 Bft) 100,00 %
24.12.2020 08:42 7,3 C 6,7 C 4,9 C 95 % 1007,1 hPa 0,0 l/m 0 min 0 min 0 W/m 0,0 km/h (0 Bft) 100,00 %
24.12.2020 08:44 7,3 C 6,7 C 4,9 C 95 % 1007,1 hPa 0,0 l/m 0 min 0 min 0 W/m 0,0 km/h (0 Bft) 97,83 %
24.12.2020 08:46 7,3 C 6,7 C 4,9 C 95 % 1007,1 hPa 0,0 l/m 0 min 0 min 0 W/m 0,0 km/h (0 Bft) 97,87 %
24.12.2020 08:48 7,3 C 6,7 C 4,9 C 95 % 1007,2 hPa 0,0 l/m 0 min 0 min 0 W/m 0,0 km/h (0 Bft) 100,00 %
24.12.2020 08:50 7,3 C 6,1 C 4,9 C 95 % 1007,2 hPa 0,0 l/m 0 min 0 min 0 W/m 0,0 km/h (0 Bft) 100,00 %
24.12.2020 08:52 7,3 C 6,1 C 4,9 C 95 % 1007,2 hPa 0,0 l/m 0 min 2 min 0 W/m 0,0 km/h (0 Bft) 100,00 %
24.12.2020 08:54 7,3 C 6,1 C 4,9 C 95 % 1007,2 hPa 0,0 l/m 0 min 2 min 0 W/m 0,0 km/h (0 Bft) 72,34 %
24.12.2020 08:56 7,3 C 6,1 C 4,9 C 95 % 1007,2 hPa 0,0 l/m 0 min 2 min 0 W/m 0,0 km/h (0 Bft) 84,44 %
24.12.2020 08:58 7,3 C 6,1 C 4,9 C 95 % 1007,2 hPa 0,2 l/m 0 min 2 min 0 W/m 0,0 km/h (0 Bft) 100,00 %
24.12.2020 09:00 7,3 C 6,1 C 4,9 C 95 % 1007,3 hPa 0,0 l/m 0 min 2 min 0 W/m 0,0 km/h (0 Bft) 100,00 %
24.12.2020 09:02 7,3 C 6,1 C 4,9 C 95 % 1007,5 hPa 0,0 l/m 0 min 2 min 0 W/m 0,0 km/h (0 Bft) 97,62 %
24.12.2020 09:04 7,3 C 5,6 C 4,9 C 96 % 1007,7 hPa 0,0 l/m 0 min 2 min 0 W/m 9,7 km/h (2 Bft) 100,00 %
24.12.2020 09:06 7,3 C 5,6 C 4,9 C 96 % 1007,7 hPa 0,0 l/m 0 min 2 min 0 W/m 3,2 km/h (1 Bft) 100,00 %
24.12.2020 09:08 7,1 C 5,0 C 4,4 C 95 % 1007,7 hPa 0,0 l/m 0 min 2 min 0 W/m 0,0 km/h (0 Bft) 100,00 %
24.12.2020 09:10 7,0 C 5,0 C 3,8 C 95 % 1007,8 hPa 0,0 l/m 0 min 2 min 0 W/m 0,0 km/h (0 Bft) 100,00 %
24.12.2020 09:12 6,9 C 5,0 C 3,8 C 95 % 1007,9 hPa 0,0 l/m 0 min 2 min 1 W/m 0,0 km/h (0 Bft) 97,87 %
24.12.2020 09:14 6,8 C 4,4 C 3,8 C 95 % 1007,9 hPa 0,0 l/m 0 min 2 min 5 W/m 9,7 km/h (2 Bft) 100,00 %
24.12.2020 09:16 6,6 C 4,4 C 3,8 C 95 % 1008,0 hPa 0,0 l/m 0 min 0 min 6 W/m 22,5 km/h (4 Bft) 100,00 %
24.12.2020 09:18 6,5 C 4,4 C 3,8 C 95 % 1008,1 hPa 0,0 l/m 0 min 0 min 2 W/m 3,2 km/h (1 Bft) 97,87 %
24.12.2020 09:20 6,4 C 4,4 C 3,8 C 95 % 1008,1 hPa 0,0 l/m 0 min 0 min 0 W/m 0,0 km/h (0 Bft) 97,87 %
24.12.2020 09:22 6,3 C 4,4 C 3,3 C 95 % 1008,1 hPa 0,0 l/m 0 min 2 min 2 W/m 3,2 km/h (1 Bft) 100,00 %
24.12.2020 09:24 6,2 C 4,4 C 3,8 C 95 % 1008,2 hPa 0,0 l/m 0 min 2 min 5 W/m 0,0 km/h (0 Bft) 100,00 %
24.12.2020 09:26 6,1 C 4,4 C 3,3 C 94 % 1008,3 hPa 0,0 l/m 0 min 2 min 6 W/m 3,2 km/h (1 Bft) 100,00 %
24.12.2020 09:28 6,0 C 4,4 C 3,3 C 94 % 1008,3 hPa 0,2 l/m 0 min 2 min 7 W/m 12,9 km/h (3 Bft) 98,28 %
24.12.2020 09:30 5,9 C 3,9 C 3,3 C 95 % 1008,4 hPa 0,0 l/m 0 min 0 min 7 W/m 9,7 km/h (2 Bft) 97,87 %
24.12.2020 09:32 5,8 C 3,9 C 3,3 C 95 % 1008,4 hPa 0,0 l/m 0 min 0 min 6 W/m 0,0 km/h (0 Bft) 97,87 %
24.12.2020 09:34 5,7 C 3,9 C 3,3 C 94 % 1008,4 hPa 0,0 l/m 0 min 0 min 5 W/m 3,2 km/h (1 Bft) 97,87 %
24.12.2020 09:36 5,6 C 3,9 C 3,3 C 94 % 1008,5 hPa 0,0 l/m 0 min 0 min 7 W/m 0,0 km/h (0 Bft) 97,87 %
24.12.2020 09:38 5,5 C 3,9 C 3,3 C 94 % 1008,5 hPa 0,0 l/m 0 min 0 min 11 W/m 3,2 km/h (1 Bft) 95,74 %
24.12.2020 09:40 5,5 C 3,9 C 3,3 C 95 % 1008,5 hPa 0,0 l/m 0 min 0 min 11 W/m 0,0 km/h (0 Bft) 97,87 %
24.12.2020 09:42 5,4 C 3,9 C 3,3 C 94 % 1008,6 hPa 0,0 l/m 0 min 0 min 12 W/m 3,2 km/h (1 Bft) 97,87 %
24.12.2020 09:44 5,4 C 3,9 C 3,3 C 95 % 1008,6 hPa 0,0 l/m 0 min 2 min 16 W/m 3,2 km/h (1 Bft) 97,83 %
24.12.2020 09:46 5,3 C 3,9 C 3,3 C 95 % 1008,7 hPa 0,0 l/m 0 min 0 min 18 W/m 0,0 km/h (0 Bft) 97,87 %
24.12.2020 09:48 5,3 C 3,9 C 3,3 C 95 % 1008,7 hPa 0,0 l/m 0 min 0 min 21 W/m 3,2 km/h (1 Bft) 97,87 %
24.12.2020 09:50 5,3 C 3,9 C 3,3 C 95 % 1008,8 hPa 0,0 l/m 0 min 0 min 26 W/m 3,2 km/h (1 Bft) 100,00 %
24.12.2020 09:52 5,1 C 3,9 C 3,3 C 95 % 1008,9 hPa 0,0 l/m 0 min 2 min 28 W/m 3,2 km/h (1 Bft) 97,87 %
24.12.2020 09:54 5,1 C 3,9 C 3,3 C 95 % 1008,9 hPa 0,0 l/m 0 min 2 min 33 W/m 22,5 km/h (4 Bft) 97,87 %
24.12.2020 09:56 5,1 C 3,9 C 3,3 C 95 % 1008,9 hPa 0,0 l/m 0 min 2 min 35 W/m 3,2 km/h (1 Bft) 100,00 %
24.12.2020 09:58 5,0 C 3,9 C 3,3 C 95 % 1008,8 hPa 0,0 l/m 0 min 2 min 33 W/m 3,2 km/h (1 Bft) 97,92 %
24.12.2020 10:00 5,0 C 3,9 C 3,3 C 95 % 1008,9 hPa 0,0 l/m 0 min 2 min 34 W/m 3,2 km/h (1 Bft) 97,87 %
24.12.2020 10:02 5,0 C 3,9 C 3,3 C 95 % 1009,0 hPa 0,0 l/m 0 min 2 min 36 W/m 0,0 km/h (0 Bft) 97,83 %
24.12.2020 10:04 4,9 C 3,9 C 3,3 C 95 % 1009,0 hPa 0,0 l/m 0 min 0 min 37 W/m 3,2 km/h (1 Bft) 93,18 %
24.12.2020 10:06 4,9 C 3,9 C 3,3 C 95 % 1009,1 hPa 0,0 l/m 0 min 2 min 39 W/m 3,2 km/h (1 Bft) 97,87 %
24.12.2020 10:08 4,9 C 3,9 C 3,3 C 95 % 1009,1 hPa 0,0 l/m 0 min 0 min 36 W/m 0,0 km/h (0 Bft) 94,29 %
24.12.2020 10:10 4,9 C 3,9 C 3,3 C 95 % 1009,2 hPa 0,0 l/m 0 min 2 min 31 W/m 9,7 km/h (2 Bft) 97,87 %
24.12.2020 10:12 4,9 C 3,9 C 3,3 C 95 % 1009,2 hPa 0,0 l/m 0 min 2 min 26 W/m 6,4 km/h (2 Bft) 97,83 %
24.12.2020 10:14 4,9 C 3,9 C 3,3 C 95 % 1009,3 hPa 0,0 l/m 0 min 0 min 23 W/m 3,2 km/h (1 Bft) 97,87 %
24.12.2020 10:16 4,8 C 3,9 C 3,3 C 95 % 1009,4 hPa 0,0 l/m 0 min 2 min 22 W/m 9,7 km/h (2 Bft) 97,87 %
24.12.2020 10:18 4,8 C 3,9 C 3,3 C 95 % 1009,5 hPa 0,0 l/m 0 min 2 min 21 W/m 0,0 km/h (0 Bft) 97,87 %
24.12.2020 10:20 4,8 C 3,9 C 3,3 C 95 % 1009,6 hPa 0,0 l/m 0 min 2 min 21 W/m 3,2 km/h (1 Bft) 100,00 %
24.12.2020 10:22 4,8 C 3,9 C 3,3 C 95 % 1009,7 hPa 0,0 l/m 0 min 2 min 23 W/m 0,0 km/h (0 Bft) 97,87 %
24.12.2020 10:24 4,8 C 3,9 C 3,3 C 96 % 1009,7 hPa 0,0 l/m 0 min 2 min 24 W/m 0,0 km/h (0 Bft) 93,48 %
24.12.2020 10:26 4,8 C 3,9 C 3,3 C 96 % 1009,8 hPa 0,2 l/m 0 min 0 min 24 W/m 0,0 km/h (0 Bft) 97,87 %
24.12.2020 10:28 4,8 C 3,9 C 3,3 C 96 % 1009,8 hPa 0,0 l/m 0 min 0 min 25 W/m 0,0 km/h (0 Bft) 97,87 %
24.12.2020 10:30 4,8 C 3,9 C 3,3 C 96 % 1009,8 hPa 0,0 l/m 0 min 0 min 27 W/m 0,0 km/h (0 Bft) 100,00 %
24.12.2020 10:32 4,8 C 3,9 C 3,3 C 96 % 1009,8 hPa 0,0 l/m 0 min 2 min 30 W/m 0,0 km/h (0 Bft) 97,87 %
24.12.2020 10:34 4,8 C 3,9 C 3,3 C 96 % 1009,7 hPa 0,0 l/m 0 min 2 min 33 W/m 0,0 km/h (0 Bft) 97,87 %
24.12.2020 10:36 4,8 C 3,9 C 3,3 C 96 % 1009,8 hPa 0,0 l/m 0 min 0 min 34 W/m 0,0 km/h (0 Bft) 97,83 %
24.12.2020 10:38 4,8 C 3,9 C 3,3 C 96 % 1010,0 hPa 0,0 l/m 0 min 0 min 38 W/m 0,0 km/h (0 Bft) 96,61 %
24.12.2020 10:40 4,8 C 3,9 C 3,3 C 96 % 1010,1 hPa 0,0 l/m 0 min 0 min 37 W/m 0,0 km/h (0 Bft) 100,00 %
24.12.2020 10:42 4,8 C 3,9 C 3,3 C 96 % 1010,2 hPa 0,0 l/m 0 min 0 min 34 W/m 3,2 km/h (1 Bft) 95,74 %
24.12.2020 10:44 4,8 C 3,9 C 3,3 C 96 % 1010,2 hPa 0,0 l/m 0 min 0 min 33 W/m 0,0 km/h (0 Bft) 97,87 %
24.12.2020 10:46 4,8 C 3,9 C 3,3 C 96 % 1010,2 hPa 0,0 l/m 0 min 0 min 35 W/m 0,0 km/h (0 Bft) 95,65 %
24.12.2020 10:48 4,8 C 3,9 C 3,3 C 96 % 1010,3 hPa 0,0 l/m 0 min 0 min 38 W/m 0,0 km/h (0 Bft) 95,74 %
24.12.2020 10:50 4,8 C 3,9 C 3,3 C 96 % 1010,4 hPa 0,0 l/m 0 min 0 min 41 W/m 3,2 km/h (1 Bft) 95,74 %
24.12.2020 10:52 4,8 C 3,9 C 3,3 C 96 % 1010,6 hPa 0,0 l/m 0 min 0 min 44 W/m 0,0 km/h (0 Bft) 91,49 %
24.12.2020 10:54 4,8 C 3,9 C 3,3 C 96 % 1010,6 hPa 0,0 l/m 0 min 0 min 49 W/m 3,2 km/h (1 Bft) 95,74 %
24.12.2020 10:56 4,8 C 3,9 C 3,3 C 96 % 1010,7 hPa 0,0 l/m 0 min 0 min 52 W/m 9,7 km/h (2 Bft) 95,74 %
24.12.2020 10:58 4,8 C 3,9 C 3,3 C 96 % 1010,7 hPa 0,0 l/m 0 min 0 min 55 W/m 3,2 km/h (1 Bft) 91,84 %
24.12.2020 11:00 4,8 C 3,9 C 3,3 C 96 % 1010,7 hPa 0,0 l/m 0 min 0 min 55 W/m 0,0 km/h (0 Bft) 95,74 %
24.12.2020 11:02 4,8 C 3,9 C 3,3 C 96 % 1010,8 hPa 0,0 l/m 0 min 0 min 46 W/m 0,0 km/h (0 Bft) 96,00 %
24.12.2020 11:04 4,8 C 3,9 C 3,3 C 96 % 1010,9 hPa 0,0 l/m 0 min 0 min 40 W/m 0,0 km/h (0 Bft) 95,65 %
24.12.2020 11:06 4,8 C 3,9 C 3,3 C 96 % 1011,0 hPa 0,0 l/m 0 min 0 min 35 W/m 22,5 km/h (4 Bft) 93,62 %
24.12.2020 11:08 4,8 C 3,9 C 3,3 C 96 % 1011,0 hPa 0,0 l/m 0 min 0 min 33 W/m 12,9 km/h (3 Bft) 95,74 %
24.12.2020 11:10 4,7 C 3,9 C 3,3 C 96 % 1011,0 hPa 0,0 l/m 0 min 0 min 37 W/m 12,9 km/h (3 Bft) 97,87 %
24.12.2020 11:12 4,7 C 3,9 C 3,3 C 96 % 1011,0 hPa 0,0 l/m 0 min 0 min 45 W/m 12,9 km/h (3 Bft) 97,87 %
24.12.2020 11:14 4,7 C 3,9 C 3,3 C 96 % 1011,0 hPa 0,0 l/m 0 min 0 min 53 W/m 0,0 km/h (0 Bft) 97,83 %
24.12.2020 11:16 4,6 C 3,9 C 3,3 C 96 % 1011,0 hPa 0,0 l/m 0 min 0 min 53 W/m 0,0 km/h (0 Bft) 93,62 %
24.12.2020 11:18 4,6 C 3,9 C 3,3 C 96 % 1011,0 hPa 0,0 l/m 0 min 0 min 47 W/m 0,0 km/h (0 Bft) 95,74 %
24.12.2020 11:20 4,6 C 3,9 C 3,3 C 96 % 1011,1 hPa 0,0 l/m 0 min 0 min 48 W/m 3,2 km/h (1 Bft) 97,87 %
24.12.2020 11:22 4,6 C 3,9 C 3,3 C 96 % 1011,0 hPa 0,0 l/m 0 min 0 min 54 W/m 12,9 km/h (3 Bft) 95,74 %
24.12.2020 11:24 4,6 C 3,9 C 3,3 C 96 % 1011,1 hPa 0,0 l/m 0 min 0 min 55 W/m 6,4 km/h (2 Bft) 97,87 %
24.12.2020 11:26 4,6 C 3,9 C 3,3 C 96 % 1011,2 hPa 0,0 l/m 0 min 0 min 57 W/m 0,0 km/h (0 Bft) 95,65 %
24.12.2020 11:28 4,6 C 3,9 C 3,3 C 96 % 1011,2 hPa 0,0 l/m 0 min 0 min 59 W/m 0,0 km/h (0 Bft) 97,87 %
24.12.2020 11:30 4,6 C 3,9 C 3,3 C 96 % 1011,2 hPa 0,0 l/m 0 min 0 min 66 W/m 0,0 km/h (0 Bft) 100,00 %
24.12.2020 11:32 4,6 C 3,9 C 3,3 C 96 % 1011,1 hPa 0,0 l/m 0 min 0 min 64 W/m 3,2 km/h (1 Bft) 95,83 %
24.12.2020 11:34 4,6 C 3,9 C 3,3 C 96 % 1011,2 hPa 0,0 l/m 0 min 0 min 59 W/m 0,0 km/h (0 Bft) 97,87 %
24.12.2020 11:36 4,6 C 3,9 C 3,3 C 96 % 1011,3 hPa 0,0 l/m 0 min 0 min 54 W/m 3,2 km/h (1 Bft) 97,87 %
24.12.2020 11:38 4,6 C 3,9 C 3,3 C 96 % 1011,3 hPa 0,0 l/m 0 min 0 min 49 W/m 0,0 km/h (0 Bft) 95,65 %
24.12.2020 11:40 4,6 C 3,9 C 3,3 C 96 % 1011,3 hPa 0,0 l/m 0 min 0 min 45 W/m 0,0 km/h (0 Bft) 95,74 %
24.12.2020 11:42 4,5 C 3,9 C 3,3 C 96 % 1011,3 hPa 0,0 l/m 0 min 0 min 43 W/m 3,2 km/h (1 Bft) 97,87 %
24.12.2020 11:44 4,6 C 3,9 C 3,3 C 96 % 1011,3 hPa 0,0 l/m 0 min 0 min 38 W/m 0,0 km/h (0 Bft) 97,87 %
24.12.2020 11:46 4,6 C 3,9 C 3,3 C 96 % 1011,4 hPa 0,0 l/m 0 min 0 min 29 W/m 0,0 km/h (0 Bft) 95,74 %
24.12.2020 11:48 4,6 C 3,9 C 3,3 C 96 % 1011,4 hPa 0,0 l/m 0 min 0 min 27 W/m 3,2 km/h (1 Bft) 97,87 %
24.12.2020 11:50 4,5 C 3,9 C 3,3 C 96 % 1011,5 hPa 0,0 l/m 0 min 0 min 28 W/m 3,2 km/h (1 Bft) 97,83 %
24.12.2020 11:52 4,5 C 3,9 C 3,3 C 96 % 1011,6 hPa 0,0 l/m 0 min 0 min 27 W/m 0,0 km/h (0 Bft) 97,87 %
24.12.2020 11:54 4,5 C 3,9 C 3,3 C 96 % 1011,5 hPa 0,0 l/m 0 min 0 min 27 W/m 19,3 km/h (3 Bft) 97,87 %
24.12.2020 11:56 4,5 C 3,9 C 3,3 C 96 % 1011,6 hPa 0,0 l/m 0 min 0 min 30 W/m 29,0 km/h (5 Bft) 93,62 %
24.12.2020 11:58 4,5 C 3,9 C 3,3 C 96 % 1011,6 hPa 0,0 l/m 0 min 0 min 28 W/m 3,2 km/h (1 Bft) 97,87 %
24.12.2020 12:00 4,5 C 3,9 C 3,3 C 96 % 1011,6 hPa 0,0 l/m 0 min 0 min 31 W/m 6,4 km/h (2 Bft) 95,74 %
24.12.2020 12:02 4,5 C 3,9 C 3,3 C 96 % 1011,5 hPa 0,0 l/m 0 min 0 min 34 W/m 0,0 km/h (0 Bft) 95,35 %
24.12.2020 12:04 4,4 C 3,9 C 3,3 C 96 % 1011,6 hPa 0,0 l/m 0 min 0 min 31 W/m 0,0 km/h (0 Bft) 94,00 %
24.12.2020 12:08 4,4 C 3,9 C 3,3 C 96 % 1011,6 hPa 0,0 l/m 0 min 0 min 32 W/m 16,1 km/h (3 Bft) 95,70 %
24.12.2020 12:10 4,4 C 3,9 C 3,3 C 96 % 1011,7 hPa 0,0 l/m 0 min 0 min 34 W/m 3,2 km/h (1 Bft) 95,74 %
24.12.2020 12:12 4,4 C 3,9 C 3,3 C 96 % 1011,7 hPa 0,0 l/m 0 min 2 min 38 W/m 3,2 km/h (1 Bft) 95,74 %
24.12.2020 12:14 4,4 C 3,9 C 3,3 C 96 % 1011,7 hPa 0,0 l/m 0 min 0 min 44 W/m 0,0 km/h (0 Bft) 93,62 %
24.12.2020 12:16 4,4 C 3,9 C 3,3 C 96 % 1011,7 hPa 0,0 l/m 0 min 0 min 45 W/m 3,2 km/h (1 Bft) 95,74 %
24.12.2020 12:18 4,4 C 3,9 C 3,3 C 96 % 1011,7 hPa 0,0 l/m 0 min 0 min 47 W/m 0,0 km/h (0 Bft) 95,65 %
24.12.2020 12:20 4,5 C 3,9 C 3,3 C 96 % 1011,7 hPa 0,0 l/m 0 min 0 min 50 W/m 0,0 km/h (0 Bft) 95,74 %
24.12.2020 12:22 4,5 C 3,9 C 3,3 C 96 % 1011,8 hPa 0,0 l/m 0 min 2 min 48 W/m 19,3 km/h (3 Bft) 95,74 %
24.12.2020 12:24 4,5 C 3,9 C 3,3 C 96 % 1011,8 hPa 0,0 l/m 0 min 2 min 48 W/m 0,0 km/h (0 Bft) 95,74 %
24.12.2020 12:26 4,5 C 3,9 C 3,3 C 96 % 1011,8 hPa 0,0 l/m 0 min 2 min 42 W/m 3,2 km/h (1 Bft) 95,74 %
24.12.2020 12:28 4,5 C 3,9 C 3,3 C 96 % 1011,9 hPa 0,0 l/m 0 min 2 min 31 W/m 3,2 km/h (1 Bft) 95,74 %
24.12.2020 12:30 4,5 C 3,9 C 3,3 C 96 % 1011,9 hPa 0,0 l/m 0 min 2 min 32 W/m 19,3 km/h (3 Bft) 93,48 %
24.12.2020 12:32 4,5 C 3,9 C 3,3 C 96 % 1011,9 hPa 0,0 l/m 0 min 2 min 35 W/m 3,2 km/h (1 Bft) 95,74 %
24.12.2020 12:34 4,5 C 3,9 C 3,3 C 97 % 1011,9 hPa 0,0 l/m 0 min 2 min 42 W/m 25,7 km/h (4 Bft) 95,74 %
24.12.2020 12:36 4,5 C 3,9 C 3,3 C 97 % 1011,9 hPa 0,0 l/m 0 min 2 min 34 W/m 16,1 km/h (3 Bft) 93,62 %
24.12.2020 12:38 4,5 C 3,9 C 3,3 C 97 % 1011,9 hPa 0,0 l/m 0 min 2 min 36 W/m 9,7 km/h (2 Bft) 95,74 %
24.12.2020 12:40 4,5 C 3,9 C 3,3 C 97 % 1011,9 hPa 0,0 l/m 0 min 2 min 33 W/m 9,7 km/h (2 Bft) 95,65 %
24.12.2020 12:42 4,5 C 3,9 C 3,3 C 97 % 1011,9 hPa 0,0 l/m 0 min 2 min 31 W/m 0,0 km/h (0 Bft) 95,74 %
24.12.2020 12:44 4,5 C 3,9 C 3,3 C 97 % 1011,9 hPa 0,0 l/m 0 min 2 min 33 W/m 12,9 km/h (3 Bft) 95,74 %
24.12.2020 12:46 4,5 C 3,9 C 3,3 C 97 % 1012,0 hPa 0,0 l/m 0 min 2 min 31 W/m 19,3 km/h (3 Bft) 97,87 %
24.12.2020 12:48 4,5 C 3,9 C 3,3 C 97 % 1012,0 hPa 0,2 l/m 0 min 2 min 31 W/m 0,0 km/h (0 Bft) 93,62 %
24.12.2020 12:50 4,5 C 3,9 C 3,3 C 97 % 1012,0 hPa 0,0 l/m 0 min 2 min 32 W/m 0,0 km/h (0 Bft) 95,74 %
24.12.2020 12:52 4,5 C 3,9 C 3,3 C 97 % 1012,1 hPa 0,0 l/m 0 min 2 min 30 W/m 0,0 km/h (0 Bft) 97,83 %
24.12.2020 12:54 4,5 C 3,9 C 3,3 C 97 % 1012,0 hPa 0,0 l/m 0 min 2 min 29 W/m 19,3 km/h (3 Bft) 95,74 %
24.12.2020 12:56 4,6 C 3,9 C 3,3 C 97 % 1012,0 hPa 0,0 l/m 0 min 2 min 26 W/m 19,3 km/h (3 Bft) 97,87 %
24.12.2020 12:58 4,5 C 3,9 C 3,3 C 97 % 1012,0 hPa 0,0 l/m 0 min 2 min 24 W/m 0,0 km/h (0 Bft) 97,96 %
24.12.2020 13:00 4,5 C 3,9 C 3,3 C 97 % 1012,0 hPa 0,0 l/m 0 min 2 min 27 W/m 0,0 km/h (0 Bft) 97,87 %
24.12.2020 13:02 4,6 C 3,9 C 3,3 C 97 % 1012,0 hPa 0,0 l/m 0 min 2 min 31 W/m 0,0 km/h (0 Bft) 97,92 %
24.12.2020 13:04 4,6 C 3,9 C 3,3 C 97 % 1012,1 hPa 0,0 l/m 0 min 2 min 34 W/m 0,0 km/h (0 Bft) 95,74 %
24.12.2020 13:06 4,6 C 3,9 C 3,3 C 97 % 1012,1 hPa 0,0 l/m 0 min 2 min 31 W/m 0,0 km/h (0 Bft) 95,74 %
24.12.2020 13:08 4,6 C 3,9 C 3,3 C 97 % 1012,0 hPa 0,0 l/m 0 min 2 min 31 W/m 22,5 km/h (4 Bft) 97,87 %
24.12.2020 13:10 4,6 C 3,9 C 3,3 C 97 % 1012,0 hPa 0,2 l/m 0 min 2 min 29 W/m 0,0 km/h (0 Bft) 97,83 %
24.12.2020 13:12 4,6 C 3,9 C 3,3 C 97 % 1012,0 hPa 0,0 l/m 0 min 2 min 32 W/m 0,0 km/h (0 Bft) 95,74 %
24.12.2020 13:14 4,6 C 3,9 C 3,3 C 97 % 1012,1 hPa 0,0 l/m 0 min 2 min 32 W/m 3,2 km/h (1 Bft) 97,87 %
24.12.2020 13:16 4,6 C 3,9 C 3,3 C 97 % 1012,0 hPa 0,0 l/m 0 min 2 min 28 W/m 0,0 km/h (0 Bft) 97,87 %
24.12.2020 13:18 4,6 C 3,9 C 3,3 C 97 % 1012,0 hPa 0,0 l/m 0 min 2 min 27 W/m 0,0 km/h (0 Bft) 97,87 %
24.12.2020 13:20 4,6 C 3,9 C 3,3 C 97 % 1012,0 hPa 0,0 l/m 0 min 2 min 30 W/m 6,4 km/h (2 Bft) 95,74 %
24.12.2020 13:22 4,6 C 3,9 C 3,3 C 97 % 1012,0 hPa 0,0 l/m 0 min 2 min 33 W/m 0,0 km/h (0 Bft) 95,65 %
24.12.2020 13:24 4,6 C 3,9 C 3,3 C 97 % 1012,0 hPa 0,0 l/m 0 min 2 min 37 W/m 0,0 km/h (0 Bft) 93,62 %
24.12.2020 13:26 4,6 C 3,9 C 3,3 C 97 % 1012,0 hPa 0,0 l/m 0 min 0 min 42 W/m 0,0 km/h (0 Bft) 95,74 %
24.12.2020 13:28 4,6 C 3,9 C 3,3 C 97 % 1012,1 hPa 0,0 l/m 0 min 0 min 47 W/m 0,0 km/h (0 Bft) 95,74 %
24.12.2020 13:30 4,6 C 3,9 C 3,3 C 97 % 1012,1 hPa 0,0 l/m 0 min 0 min 48 W/m 0,0 km/h (0 Bft) 93,62 %
24.12.2020 13:32 4,7 C 3,9 C 3,3 C 97 % 1012,1 hPa 0,0 l/m 0 min 0 min 55 W/m 9,7 km/h (2 Bft) 95,74 %
24.12.2020 13:34 4,7 C 3,9 C 3,3 C 97 % 1012,1 hPa 0,0 l/m 0 min 0 min 58 W/m 0,0 km/h (0 Bft) 93,62 %
24.12.2020 13:38 4,8 C 3,9 C 3,3 C 97 % 1012,1 hPa 0,0 l/m 0 min 0 min 48 W/m 0,0 km/h (0 Bft) 94,68 %
24.12.2020 13:40 4,8 C 3,9 C 3,3 C 97 % 1012,2 hPa 0,0 l/m 0 min 0 min 46 W/m 3,2 km/h (1 Bft) 95,74 %
24.12.2020 13:42 4,8 C 3,9 C 3,3 C 97 % 1012,2 hPa 0,0 l/m 0 min 0 min 37 W/m 3,2 km/h (1 Bft) 95,74 %
24.12.2020 13:44 4,8 C 3,9 C 3,3 C 97 % 1012,2 hPa 0,0 l/m 0 min 0 min 35 W/m 12,9 km/h (3 Bft) 95,65 %
24.12.2020 13:46 4,8 C 3,9 C 3,3 C 97 % 1012,2 hPa 0,0 l/m 0 min 0 min 35 W/m 16,1 km/h (3 Bft) 95,74 %
24.12.2020 13:48 4,8 C 3,9 C 3,3 C 97 % 1012,3 hPa 0,0 l/m 0 min 0 min 38 W/m 19,3 km/h (3 Bft) 93,62 %
24.12.2020 13:50 4,8 C 3,9 C 3,3 C 97 % 1012,2 hPa 0,0 l/m 0 min 0 min 39 W/m 0,0 km/h (0 Bft) 95,74 %
24.12.2020 13:52 4,8 C 4,4 C 3,8 C 97 % 1012,3 hPa 0,0 l/m 0 min 0 min 44 W/m 0,0 km/h (0 Bft) 95,74 %
24.12.2020 13:54 4,8 C 4,4 C 3,8 C 97 % 1012,3 hPa 0,0 l/m 0 min 0 min 41 W/m 0,0 km/h (0 Bft) 95,74 %
24.12.2020 13:56 4,8 C 4,4 C 3,8 C 97 % 1012,3 hPa 0,0 l/m 0 min 0 min 34 W/m 3,2 km/h (1 Bft) 93,48 %
24.12.2020 13:58 4,8 C 4,4 C 3,8 C 97 % 1012,3 hPa 0,0 l/m 0 min 0 min 32 W/m 0,0 km/h (0 Bft) 95,35 %
24.12.2020 14:00 4,8 C 4,4 C 3,8 C 97 % 1012,3 hPa 0,0 l/m 0 min 0 min 35 W/m 3,2 km/h (1 Bft) 95,74 %
24.12.2020 14:02 4,8 C 4,4 C 3,8 C 97 % 1012,3 hPa 0,0 l/m 0 min 0 min 36 W/m 0,0 km/h (0 Bft) 95,92 %
24.12.2020 14:04 4,8 C 4,4 C 3,8 C 97 % 1012,3 hPa 0,0 l/m 0 min 0 min 37 W/m 0,0 km/h (0 Bft) 95,92 %
24.12.2020 14:06 4,9 C 4,4 C 3,8 C 97 % 1012,3 hPa 0,0 l/m 0 min 0 min 39 W/m 6,4 km/h (2 Bft) 93,62 %
24.12.2020 14:08 4,9 C 4,4 C 3,8 C 97 % 1012,4 hPa 0,0 l/m 0 min 0 min 40 W/m 0,0 km/h (0 Bft) 97,83 %
24.12.2020 14:10 4,9 C 4,4 C 3,8 C 97 % 1012,4 hPa 0,0 l/m 0 min 0 min 41 W/m 0,0 km/h (0 Bft) 95,74 %
24.12.2020 14:12 4,9 C 4,4 C 3,8 C 97 % 1012,4 hPa 0,0 l/m 0 min 0 min 39 W/m 0,0 km/h (0 Bft) 95,74 %
24.12.2020 14:14 4,9 C 4,4 C 3,8 C 97 % 1012,4 hPa 0,0 l/m 0 min 0 min 39 W/m 22,5 km/h (4 Bft) 97,87 %
24.12.2020 14:16 4,9 C 4,4 C 3,8 C 97 % 1012,4 hPa 0,0 l/m 0 min 0 min 39 W/m 25,7 km/h (4 Bft) 97,87 %
24.12.2020 14:18 4,9 C 4,4 C 3,8 C 98 % 1012,5 hPa 0,0 l/m 0 min 0 min 39 W/m 16,1 km/h (3 Bft) 100,00 %
24.12.2020 14:20 4,9 C 4,4 C 3,8 C 98 % 1012,5 hPa 0,0 l/m 0 min 0 min 39 W/m 3,2 km/h (1 Bft) 100,00 %
24.12.2020 14:22 4,9 C 4,4 C 3,8 C 98 % 1012,4 hPa 0,0 l/m 0 min 0 min 43 W/m 3,2 km/h (1 Bft) 100,00 %
24.12.2020 14:24 4,9 C 4,4 C 3,8 C 98 % 1012,4 hPa 0,0 l/m 0 min 0 min 42 W/m 0,0 km/h (0 Bft) 97,87 %
24.12.2020 14:26 4,9 C 4,4 C 3,8 C 98 % 1012,4 hPa 0,0 l/m 0 min 0 min 43 W/m 0,0 km/h (0 Bft) 100,00 %
24.12.2020 14:28 4,9 C 4,4 C 3,8 C 98 % 1012,4 hPa 0,0 l/m 0 min 0 min 38 W/m 0,0 km/h (0 Bft) 100,00 %
24.12.2020 14:30 4,9 C 4,4 C 3,8 C 98 % 1012,4 hPa 0,0 l/m 0 min 0 min 37 W/m 0,0 km/h (0 Bft) 100,00 %
24.12.2020 14:32 5,0 C 4,4 C 3,8 C 98 % 1012,4 hPa 0,0 l/m 0 min 0 min 37 W/m 0,0 km/h (0 Bft) 97,87 %
24.12.2020 14:34 5,0 C 4,4 C 3,8 C 98 % 1012,5 hPa 0,0 l/m 0 min 0 min 39 W/m 3,2 km/h (1 Bft) 95,74 %
24.12.2020 14:36 5,0 C 4,4 C 3,8 C 98 % 1012,4 hPa 0,0 l/m 0 min 0 min 38 W/m 6,4 km/h (2 Bft) 100,00 %
24.12.2020 14:38 5,0 C 4,4 C 3,8 C 98 % 1012,5 hPa 0,0 l/m 0 min 0 min 36 W/m 0,0 km/h (0 Bft) 100,00 %
24.12.2020 14:40 5,0 C 4,4 C 3,8 C 98 % 1012,6 hPa 0,0 l/m 0 min 0 min 33 W/m 3,2 km/h (1 Bft) 97,87 %
24.12.2020 14:42 5,0 C 4,4 C 3,8 C 98 % 1012,7 hPa 0,0 l/m 0 min 0 min 33 W/m 0,0 km/h (0 Bft) 95,65 %
24.12.2020 14:44 5,0 C 4,4 C 3,8 C 98 % 1012,6 hPa 0,0 l/m 0 min 0 min 33 W/m 12,9 km/h (3 Bft) 97,87 %
24.12.2020 14:46 5,0 C 4,4 C 3,8 C 98 % 1012,7 hPa 0,0 l/m 0 min 0 min 33 W/m 0,0 km/h (0 Bft) 95,74 %
24.12.2020 14:48 5,1 C 4,4 C 3,8 C 98 % 1012,7 hPa 0,0 l/m 0 min 0 min 32 W/m 16,1 km/h (3 Bft) 97,87 %
24.12.2020 14:50 5,1 C 4,4 C 3,8 C 98 % 1012,7 hPa 0,0 l/m 0 min 0 min 31 W/m 0,0 km/h (0 Bft) 95,74 %
24.12.2020 14:52 5,1 C 4,4 C 3,8 C 98 % 1012,6 hPa 0,0 l/m 0 min 0 min 30 W/m 0,0 km/h (0 Bft) 95,74 %
24.12.2020 14:54 5,1 C 4,4 C 3,8 C 98 % 1012,6 hPa 0,0 l/m 0 min 0 min 32 W/m 0,0 km/h (0 Bft) 95,65 %
24.12.2020 14:56 5,1 C 4,4 C 3,8 C 98 % 1012,6 hPa 0,0 l/m 0 min 0 min 32 W/m 22,5 km/h (4 Bft) 97,87 %
24.12.2020 14:58 5,1 C 4,4 C 3,8 C 98 % 1012,5 hPa 0,0 l/m 0 min 0 min 32 W/m 19,3 km/h (3 Bft) 95,74 %
24.12.2020 15:00 5,1 C 4,4 C 3,8 C 98 % 1012,6 hPa 0,0 l/m 0 min 0 min 33 W/m 3,2 km/h (1 Bft) 97,87 %
24.12.2020 15:02 5,1 C 4,4 C 3,8 C 98 % 1012,6 hPa 0,0 l/m 0 min 0 min 33 W/m 16,1 km/h (3 Bft) 97,62 %
24.12.2020 15:04 5,1 C 4,4 C 3,8 C 98 % 1012,7 hPa 0,0 l/m 0 min 0 min 32 W/m 19,3 km/h (3 Bft) 98,00 %
24.12.2020 15:06 5,1 C 4,4 C 3,8 C 98 % 1012,7 hPa 0,0 l/m 0 min 0 min 30 W/m 3,2 km/h (1 Bft) 95,74 %
24.12.2020 15:08 5,1 C 4,4 C 3,8 C 98 % 1012,7 hPa 0,0 l/m 0 min 0 min 28 W/m 9,7 km/h (2 Bft) 97,87 %
24.12.2020 15:10 5,1 C 4,4 C 3,8 C 98 % 1012,7 hPa 0,0 l/m 0 min 0 min 26 W/m 19,3 km/h (3 Bft) 97,87 %
24.12.2020 15:12 5,1 C 4,4 C 3,8 C 98 % 1012,7 hPa 0,0 l/m 0 min 0 min 25 W/m 3,2 km/h (1 Bft) 97,83 %
24.12.2020 15:14 5,1 C 4,4 C 3,8 C 98 % 1012,7 hPa 0,0 l/m 0 min 0 min 23 W/m 0,0 km/h (0 Bft) 95,74 %
24.12.2020 15:16 5,1 C 4,4 C 3,8 C 98 % 1012,7 hPa 0,0 l/m 0 min 0 min 23 W/m 0,0 km/h (0 Bft) 97,87 %
24.12.2020 15:18 5,1 C 4,4 C 3,8 C 98 % 1012,7 hPa 0,0 l/m 0 min 0 min 21 W/m 6,4 km/h (2 Bft) 97,87 %
24.12.2020 15:20 5,2 C 4,4 C 3,8 C 98 % 1012,8 hPa 0,0 l/m 0 min 0 min 21 W/m 0,0 km/h (0 Bft) 97,87 %
24.12.2020 15:22 5,2 C 4,4 C 3,8 C 98 % 1012,8 hPa 0,0 l/m 0 min 0 min 19 W/m 0,0 km/h (0 Bft) 97,83 %
24.12.2020 15:24 5,2 C 4,4 C 3,8 C 98 % 1012,8 hPa 0,0 l/m 0 min 0 min 19 W/m 3,2 km/h (1 Bft) 97,87 %
24.12.2020 15:26 5,2 C 4,4 C 3,8 C 98 % 1012,8 hPa 0,0 l/m 0 min 0 min 19 W/m 0,0 km/h (0 Bft) 97,87 %
24.12.2020 15:28 5,2 C 4,4 C 3,8 C 98 % 1012,8 hPa 0,0 l/m 0 min 0 min 19 W/m 0,0 km/h (0 Bft) 100,00 %
24.12.2020 15:30 5,2 C 4,4 C 3,8 C 98 % 1012,8 hPa 0,0 l/m 0 min 0 min 18 W/m 0,0 km/h (0 Bft) 100,00 %
24.12.2020 15:32 5,2 C 4,4 C 3,8 C 98 % 1012,8 hPa 0,0 l/m 0 min 0 min 18 W/m 3,2 km/h (1 Bft) 97,87 %
24.12.2020 15:34 5,2 C 4,4 C 3,8 C 98 % 1012,8 hPa 0,0 l/m 0 min 0 min 18 W/m 3,2 km/h (1 Bft) 97,83 %
24.12.2020 15:36 5,2 C 4,4 C 3,8 C 98 % 1012,8 hPa 0,0 l/m 0 min 0 min 16 W/m 0,0 km/h (0 Bft) 100,00 %
24.12.2020 15:38 5,2 C 4,4 C 3,8 C 98 % 1012,9 hPa 0,0 l/m 0 min 0 min 16 W/m 0,0 km/h (0 Bft) 100,00 %
24.12.2020 15:40 5,2 C 4,4 C 3,8 C 98 % 1013,0 hPa 0,0 l/m 0 min 0 min 16 W/m 0,0 km/h (0 Bft) 63,83 %
24.12.2020 15:42 5,2 C 4,4 C 3,8 C 98 % 1013,0 hPa 0,0 l/m 0 min 0 min 14 W/m 0,0 km/h (0 Bft) 93,62 %
24.12.2020 15:44 5,2 C 4,4 C 3,8 C 98 % 1013,0 hPa 0,0 l/m 0 min 0 min 14 W/m 0,0 km/h (0 Bft) 100,00 %
24.12.2020 15:46 5,2 C 4,4 C 3,8 C 98 % 1013,0 hPa 0,0 l/m 0 min 0 min 13 W/m 0,0 km/h (0 Bft) 100,00 %
24.12.2020 15:48 5,2 C 4,4 C 3,8 C 98 % 1013,0 hPa 0,0 l/m 0 min 0 min 12 W/m 0,0 km/h (0 Bft) 100,00 %
24.12.2020 15:50 5,2 C 4,4 C 3,8 C 98 % 1012,9 hPa 0,0 l/m 0 min 0 min 12 W/m 0,0 km/h (0 Bft) 100,00 %
24.12.2020 15:52 5,2 C 4,4 C 3,8 C 98 % 1013,0 hPa 0,0 l/m 0 min 0 min 12 W/m 0,0 km/h (0 Bft) 97,87 %
24.12.2020 15:54 5,2 C 4,4 C 3,8 C 98 % 1013,0 hPa 0,0 l/m 0 min 0 min 12 W/m 0,0 km/h (0 Bft) 100,00 %
24.12.2020 15:56 5,2 C 4,4 C 3,8 C 98 % 1013,0 hPa 0,0 l/m 0 min 0 min 11 W/m 0,0 km/h (0 Bft) 100,00 %
24.12.2020 15:58 5,2 C 4,4 C 3,8 C 98 % 1013,1 hPa 0,0 l/m 0 min 0 min 11 W/m 0,0 km/h (0 Bft) 100,00 %
24.12.2020 16:00 5,2 C 4,4 C 3,8 C 98 % 1013,1 hPa 0,0 l/m 0 min 0 min 11 W/m 0,0 km/h (0 Bft) 100,00 %
24.12.2020 16:02 5,2 C 4,4 C 3,8 C 98 % 1013,1 hPa 0,0 l/m 0 min 0 min 11 W/m 0,0 km/h (0 Bft) 97,92 %
24.12.2020 16:04 5,2 C 4,4 C 3,8 C 98 % 1013,1 hPa 0,0 l/m 0 min 0 min 9 W/m 0,0 km/h (0 Bft) 97,83 %
24.12.2020 16:06 5,2 C 4,4 C 3,8 C 98 % 1013,1 hPa 0,0 l/m 0 min 0 min 9 W/m 9,7 km/h (2 Bft) 100,00 %
24.12.2020 16:08 5,2 C 4,4 C 3,8 C 98 % 1013,1 hPa 0,0 l/m 0 min 0 min 7 W/m 3,2 km/h (1 Bft) 100,00 %
24.12.2020 16:10 5,2 C 4,4 C 3,8 C 98 % 1013,2 hPa 0,0 l/m 0 min 0 min 7 W/m 3,2 km/h (1 Bft) 100,00 %
24.12.2020 16:12 5,2 C 4,4 C 3,8 C 98 % 1013,2 hPa 0,0 l/m 0 min 0 min 6 W/m 3,2 km/h (1 Bft) 97,87 %
24.12.2020 16:14 5,2 C 4,4 C 3,8 C 98 % 1013,2 hPa 0,0 l/m 0 min 0 min 5 W/m 0,0 km/h (0 Bft) 100,00 %
24.12.2020 16:16 5,2 C 4,4 C 3,8 C 98 % 1013,3 hPa 0,0 l/m 0 min 0 min 5 W/m 0,0 km/h (0 Bft) 97,83 %
24.12.2020 16:18 5,2 C 4,4 C 3,8 C 98 % 1013,3 hPa 0,0 l/m 0 min 0 min 5 W/m 3,2 km/h (1 Bft) 97,87 %
24.12.2020 16:20 5,2 C 4,4 C 3,8 C 98 % 1013,3 hPa 0,0 l/m 0 min 0 min 5 W/m 0,0 km/h (0 Bft) 95,74 %
24.12.2020 16:22 5,1 C 4,4 C 3,8 C 98 % 1013,3 hPa 0,0 l/m 0 min 0 min 3 W/m 0,0 km/h (0 Bft) 97,87 %
24.12.2020 16:24 5,1 C 4,4 C 3,8 C 98 % 1013,3 hPa 0,0 l/m 0 min 0 min 0 W/m 0,0 km/h (0 Bft) 95,74 %
24.12.2020 16:26 5,1 C 4,4 C 3,8 C 98 % 1013,4 hPa 0,0 l/m 0 min 0 min 0 W/m 0,0 km/h (0 Bft) 97,83 %
24.12.2020 16:28 5,1 C 4,4 C 3,8 C 98 % 1013,3 hPa 0,0 l/m 0 min 0 min 0 W/m 0,0 km/h (0 Bft) 97,87 %
24.12.2020 16:30 5,1 C 4,4 C 3,8 C 98 % 1013,4 hPa 0,0 l/m 0 min 0 min 0 W/m 0,0 km/h (0 Bft) 97,87 %
24.12.2020 16:32 5,1 C 4,4 C 3,8 C 98 % 1013,5 hPa 0,0 l/m 0 min 0 min 0 W/m 0,0 km/h (0 Bft) 97,92 %
24.12.2020 16:34 5,1 C 4,4 C 3,8 C 98 % 1013,5 hPa 0,0 l/m 0 min 0 min 0 W/m 0,0 km/h (0 Bft) 95,74 %
24.12.2020 16:36 5,1 C 4,4 C 3,8 C 98 % 1013,5 hPa 0,0 l/m 0 min 0 min 0 W/m 0,0 km/h (0 Bft) 97,87 %
24.12.2020 16:38 5,1 C 4,4 C 3,8 C 98 % 1013,5 hPa 0,0 l/m 0 min 0 min 0 W/m 6,4 km/h (2 Bft) 95,65 %
24.12.2020 16:40 5,1 C 4,4 C 3,8 C 98 % 1013,4 hPa 0,0 l/m 0 min 0 min 0 W/m 0,0 km/h (0 Bft) 95,74 %
24.12.2020 16:42 5,1 C 4,4 C 3,8 C 98 % 1013,5 hPa 0,0 l/m 0 min 0 min 0 W/m 0,0 km/h (0 Bft) 95,65 %
24.12.2020 16:44 5,1 C 4,4 C 3,8 C 98 % 1013,5 hPa 0,0 l/m 0 min 0 min 0 W/m 0,0 km/h (0 Bft) 97,87 %
24.12.2020 16:46 5,1 C 4,4 C 3,8 C 98 % 1013,5 hPa 0,0 l/m 0 min 0 min 0 W/m 0,0 km/h (0 Bft) 95,74 %
24.12.2020 16:48 5,1 C 4,4 C 3,8 C 98 % 1013,5 hPa 0,0 l/m 0 min 0 min 0 W/m 9,7 km/h (2 Bft) 97,87 %
24.12.2020 16:50 5,1 C 4,4 C 3,8 C 98 % 1013,6 hPa 0,0 l/m 0 min 0 min 0 W/m 0,0 km/h (0 Bft) 97,83 %
24.12.2020 16:52 5,1 C 4,4 C 3,8 C 98 % 1013,6 hPa 0,0 l/m 0 min 0 min 0 W/m 0,0 km/h (0 Bft) 97,87 %
24.12.2020 16:54 5,1 C 4,4 C 3,8 C 98 % 1013,6 hPa 0,0 l/m 0 min 0 min 0 W/m 0,0 km/h (0 Bft) 97,87 %
24.12.2020 16:56 5,1 C 4,4 C 3,8 C 98 % 1013,6 hPa 0,0 l/m 0 min 0 min 0 W/m 0,0 km/h (0 Bft) 97,87 %
24.12.2020 16:58 5,1 C 4,4 C 3,8 C 98 % 1013,6 hPa 0,0 l/m 0 min 0 min 0 W/m 0,0 km/h (0 Bft) 97,67 %
24.12.2020 17:00 5,1 C 4,4 C 3,8 C 98 % 1013,6 hPa 0,0 l/m 0 min 0 min 0 W/m 0,0 km/h (0 Bft) 95,74 %
24.12.2020 17:02 5,1 C 4,4 C 3,8 C 98 % 1013,6 hPa 0,0 l/m 0 min 0 min 0 W/m 0,0 km/h (0 Bft) 98,00 %
24.12.2020 17:04 5,1 C 4,4 C 3,8 C 98 % 1013,6 hPa 0,0 l/m 0 min 0 min 0 W/m 0,0 km/h (0 Bft) 97,92 %
24.12.2020 17:06 5,1 C 4,4 C 3,8 C 98 % 1013,6 hPa 0,0 l/m 0 min 0 min 0 W/m 6,4 km/h (2 Bft) 100,00 %
24.12.2020 17:08 5,1 C 4,4 C 3,8 C 98 % 1013,6 hPa 0,0 l/m 0 min 0 min 0 W/m 3,2 km/h (1 Bft) 97,87 %
24.12.2020 17:10 5,1 C 4,4 C 3,8 C 98 % 1013,6 hPa 0,0 l/m 0 min 0 min 0 W/m 0,0 km/h (0 Bft) 97,87 %
24.12.2020 17:12 5,0 C 4,4 C 3,8 C 98 % 1013,6 hPa 0,0 l/m 0 min 0 min 0 W/m 0,0 km/h (0 Bft) 97,83 %
24.12.2020 17:14 5,0 C 4,4 C 3,8 C 98 % 1013,6 hPa 0,0 l/m 0 min 0 min 0 W/m 0,0 km/h (0 Bft) 100,00 %
24.12.2020 17:16 5,0 C 4,4 C 3,8 C 98 % 1013,7 hPa 0,0 l/m 0 min 0 min 0 W/m 0,0 km/h (0 Bft) 100,00 %
24.12.2020 17:18 5,0 C 4,4 C 3,8 C 98 % 1013,7 hPa 0,0 l/m 0 min 0 min 0 W/m 0,0 km/h (0 Bft) 97,87 %
24.12.2020 17:20 5,0 C 4,4 C 3,8 C 98 % 1013,7 hPa 0,0 l/m 0 min 0 min 0 W/m 0,0 km/h (0 Bft) 97,87 %
24.12.2020 17:22 5,0 C 4,4 C 3,8 C 98 % 1013,7 hPa 0,0 l/m 0 min 0 min 0 W/m 12,9 km/h (3 Bft) 97,87 %
24.12.2020 17:24 5,0 C 4,4 C 3,8 C 98 % 1013,7 hPa 0,0 l/m 0 min 0 min 0 W/m 9,7 km/h (2 Bft) 97,83 %
24.12.2020 17:26 5,0 C 4,4 C 3,8 C 97 % 1013,7 hPa 0,0 l/m 0 min 0 min 0 W/m 9,7 km/h (2 Bft) 95,74 %
24.12.2020 17:28 5,0 C 4,4 C 3,8 C 97 % 1013,8 hPa 0,0 l/m 0 min 0 min 0 W/m 0,0 km/h (0 Bft) 97,87 %
24.12.2020 17:30 5,0 C 4,4 C 3,8 C 97 % 1013,8 hPa 0,0 l/m 0 min 0 min 0 W/m 0,0 km/h (0 Bft) 95,74 %
24.12.2020 17:32 5,0 C 4,4 C 3,3 C 97 % 1013,8 hPa 0,0 l/m 0 min 0 min 0 W/m 0,0 km/h (0 Bft) 95,83 %
24.12.2020 17:34 5,0 C 4,4 C 3,3 C 97 % 1013,8 hPa 0,0 l/m 0 min 0 min 0 W/m 0,0 km/h (0 Bft) 97,87 %
24.12.2020 17:36 5,0 C 4,4 C 3,3 C 97 % 1013,7 hPa 0,0 l/m 0 min 0 min 0 W/m 0,0 km/h (0 Bft) 97,83 %
24.12.2020 17:38 5,0 C 3,9 C 3,3 C 97 % 1013,8 hPa 0,0 l/m 0 min 0 min 0 W/m 0,0 km/h (0 Bft) 97,87 %
24.12.2020 17:40 5,0 C 3,9 C 3,3 C 97 % 1013,9 hPa 0,0 l/m 0 min 0 min 0 W/m 16,1 km/h (3 Bft) 97,87 %
24.12.2020 17:42 4,9 C 3,9 C 3,3 C 97 % 1013,9 hPa 0,0 l/m 0 min 0 min 0 W/m 0,0 km/h (0 Bft) 97,87 %
24.12.2020 17:44 4,9 C 3,9 C 3,3 C 97 % 1013,9 hPa 0,0 l/m 0 min 0 min 0 W/m 6,4 km/h (2 Bft) 94,29 %
24.12.2020 17:46 4,9 C 3,9 C 3,3 C 97 % 1013,9 hPa 0,0 l/m 0 min 0 min 0 W/m 12,9 km/h (3 Bft) 97,87 %
24.12.2020 17:48 4,9 C 3,9 C 3,3 C 97 % 1013,9 hPa 0,0 l/m 0 min 0 min 0 W/m 22,5 km/h (4 Bft) 97,87 %
24.12.2020 17:50 4,9 C 4,4 C 3,3 C 97 % 1013,9 hPa 0,0 l/m 0 min 0 min 0 W/m 3,2 km/h (1 Bft) 97,87 %
24.12.2020 17:52 4,9 C 3,9 C 3,3 C 97 % 1014,0 hPa 0,0 l/m 0 min 0 min 0 W/m 19,3 km/h (3 Bft) 97,87 %
24.12.2020 17:54 4,9 C 3,9 C 3,3 C 97 % 1014,1 hPa 0,0 l/m 0 min 0 min 0 W/m 19,3 km/h (3 Bft) 97,83 %
24.12.2020 17:56 4,9 C 3,9 C 3,3 C 97 % 1014,0 hPa 0,0 l/m 0 min 0 min 0 W/m 16,1 km/h (3 Bft) 97,87 %
24.12.2020 17:58 4,9 C 3,9 C 3,3 C 97 % 1014,0 hPa 0,0 l/m 0 min 0 min 0 W/m 6,4 km/h (2 Bft) 98,00 %
24.12.2020 18:00 4,9 C 3,9 C 3,3 C 97 % 1014,0 hPa 0,0 l/m 0 min 0 min 0 W/m 9,7 km/h (2 Bft) 97,87 %
24.12.2020 18:02 4,9 C 3,9 C 3,3 C 97 % 1014,0 hPa 0,0 l/m 0 min 0 min 0 W/m 3,2 km/h (1 Bft) 95,74 %
24.12.2020 18:04 4,8 C 3,9 C 3,3 C 97 % 1014,1 hPa 0,0 l/m 0 min 0 min 0 W/m 3,2 km/h (1 Bft) 97,87 %
24.12.2020 18:08 4,8 C 3,9 C 3,3 C 97 % 1014,0 hPa 0,0 l/m 0 min 0 min 0 W/m 12,9 km/h (3 Bft) 100,00 %
24.12.2020 18:10 4,8 C 3,9 C 3,3 C 97 % 1014,1 hPa 0,0 l/m 0 min 0 min 0 W/m 3,2 km/h (1 Bft) 100,00 %
24.12.2020 18:12 4,8 C 3,9 C 3,3 C 97 % 1014,1 hPa 0,0 l/m 0 min 0 min 0 W/m 19,3 km/h (3 Bft) 100,00 %
24.12.2020 18:14 4,8 C 3,9 C 3,3 C 97 % 1014,1 hPa 0,0 l/m 0 min 0 min 0 W/m 19,3 km/h (3 Bft) 100,00 %
24.12.2020 18:16 4,8 C 3,9 C 3,3 C 97 % 1014,1 hPa 0,0 l/m 0 min 0 min 0 W/m 12,9 km/h (3 Bft) 100,00 %
24.12.2020 18:18 4,8 C 3,9 C 3,3 C 97 % 1014,1 hPa 0,0 l/m 0 min 0 min 0 W/m 12,9 km/h (3 Bft) 100,00 %
24.12.2020 18:20 4,8 C 3,9 C 3,3 C 97 % 1014,1 hPa 0,0 l/m 0 min 0 min 0 W/m 3,2 km/h (1 Bft) 100,00 %
24.12.2020 18:22 4,8 C 3,9 C 3,3 C 97 % 1014,2 hPa 0,0 l/m 0 min 0 min 0 W/m 0,0 km/h (0 Bft) 100,00 %
24.12.2020 18:24 4,8 C 3,9 C 3,3 C 97 % 1014,2 hPa 0,0 l/m 0 min 0 min 0 W/m 3,2 km/h (1 Bft) 100,00 %
24.12.2020 18:26 4,7 C 3,9 C 3,3 C 97 % 1014,3 hPa 0,0 l/m 0 min 0 min 0 W/m 0,0 km/h (0 Bft) 100,00 %
24.12.2020 18:28 4,7 C 3,9 C 3,3 C 97 % 1014,2 hPa 0,0 l/m 0 min 0 min 0 W/m 16,1 km/h (3 Bft) 100,00 %
24.12.2020 18:30 4,7 C 3,9 C 3,3 C 97 % 1014,3 hPa 0,0 l/m 0 min 0 min 0 W/m 19,3 km/h (3 Bft) 100,00 %
24.12.2020 18:32 4,7 C 3,9 C 3,3 C 97 % 1014,2 hPa 0,0 l/m 0 min 0 min 0 W/m 0,0 km/h (0 Bft) 100,00 %
24.12.2020 18:34 4,6 C 3,9 C 3,3 C 97 % 1014,3 hPa 0,0 l/m 0 min 0 min 0 W/m 0,0 km/h (0 Bft) 100,00 %
24.12.2020 18:36 4,6 C 3,9 C 3,3 C 97 % 1014,3 hPa 0,0 l/m 0 min 0 min 0 W/m 0,0 km/h (0 Bft) 100,00 %
24.12.2020 18:38 4,6 C 3,9 C 3,3 C 97 % 1014,3 hPa 0,0 l/m 0 min 0 min 0 W/m 9,7 km/h (2 Bft) 100,00 %
24.12.2020 18:40 4,6 C 3,9 C 3,3 C 97 % 1014,4 hPa 0,0 l/m 0 min 0 min 0 W/m 12,9 km/h (3 Bft) 97,87 %
24.12.2020 18:42 4,6 C 3,9 C 3,3 C 97 % 1014,4 hPa 0,0 l/m 0 min 0 min 0 W/m 9,7 km/h (2 Bft) 97,87 %
24.12.2020 18:44 4,5 C 3,9 C 3,3 C 97 % 1014,5 hPa 0,0 l/m 0 min 0 min 0 W/m 12,9 km/h (3 Bft) 97,87 %
24.12.2020 18:46 4,5 C 3,9 C 2,7 C 97 % 1014,5 hPa 0,0 l/m 0 min 0 min 0 W/m 0,0 km/h (0 Bft) 100,00 %
24.12.2020 18:48 4,5 C 3,9 C 2,7 C 97 % 1014,5 hPa 0,0 l/m 0 min 0 min 0 W/m 3,2 km/h (1 Bft) 100,00 %
24.12.2020 18:50 4,5 C 3,9 C 2,7 C 97 % 1014,6 hPa 0,0 l/m 0 min 0 min 0 W/m 0,0 km/h (0 Bft) 97,87 %
24.12.2020 18:52 4,5 C 3,9 C 2,7 C 97 % 1014,6 hPa 0,0 l/m 0 min 0 min 0 W/m 0,0 km/h (0 Bft) 100,00 %
24.12.2020 18:54 4,5 C 3,9 C 2,7 C 97 % 1014,6 hPa 0,0 l/m 0 min 0 min 0 W/m 12,9 km/h (3 Bft) 100,00 %
24.12.2020 18:56 4,4 C 3,9 C 2,7 C 97 % 1014,7 hPa 0,0 l/m 0 min 0 min 0 W/m 19,3 km/h (3 Bft) 97,87 %
24.12.2020 18:58 4,4 C 3,9 C 3,3 C 97 % 1014,7 hPa 0,0 l/m 0 min 0 min 0 W/m 16,1 km/h (3 Bft) 97,87 %
24.12.2020 19:00 4,4 C 3,9 C 3,3 C 97 % 1014,7 hPa 0,0 l/m 0 min 0 min 0 W/m 16,1 km/h (3 Bft) 57,45 %
24.12.2020 19:02 4,4 C 3,9 C 3,3 C 97 % 1014,7 hPa 0,0 l/m 0 min 0 min 0 W/m 25,7 km/h (4 Bft) 97,92 %
24.12.2020 19:04 4,4 C 3,9 C 3,3 C 97 % 1014,8 hPa 0,0 l/m 0 min 0 min 0 W/m 22,5 km/h (4 Bft) 97,62 %
24.12.2020 19:06 4,4 C 3,9 C 3,3 C 97 % 1014,8 hPa 0,0 l/m 0 min 0 min 0 W/m 25,7 km/h (4 Bft) 97,87 %
24.12.2020 19:08 4,4 C 3,9 C 2,7 C 96 % 1014,8 hPa 0,0 l/m 0 min 0 min 0 W/m 22,5 km/h (4 Bft) 100,00 %
24.12.2020 19:10 4,4 C 3,9 C 2,7 C 96 % 1014,9 hPa 0,0 l/m 0 min 0 min 0 W/m 3,2 km/h (1 Bft) 100,00 %
24.12.2020 19:12 4,4 C 3,9 C 2,7 C 96 % 1014,9 hPa 0,0 l/m 0 min 0 min 0 W/m 0,0 km/h (0 Bft) 100,00 %
24.12.2020 19:14 4,3 C 3,9 C 2,7 C 96 % 1015,0 hPa 0,0 l/m 0 min 0 min 0 W/m 0,0 km/h (0 Bft) 100,00 %
24.12.2020 19:16 4,3 C 3,9 C 2,7 C 96 % 1015,0 hPa 0,0 l/m 0 min 0 min 0 W/m 6,4 km/h (2 Bft) 97,87 %
24.12.2020 19:18 4,3 C 3,9 C 2,7 C 96 % 1015,0 hPa 0,0 l/m 0 min 0 min 0 W/m 9,7 km/h (2 Bft) 95,74 %
24.12.2020 19:20 4,3 C 3,9 C 2,7 C 96 % 1015,0 hPa 0,0 l/m 0 min 0 min 0 W/m 3,2 km/h (1 Bft) 97,87 %
24.12.2020 19:22 4,3 C 3,9 C 2,7 C 96 % 1015,1 hPa 0,0 l/m 0 min 0 min 0 W/m 3,2 km/h (1 Bft) 97,87 %
24.12.2020 19:24 4,3 C 3,9 C 2,7 C 96 % 1015,1 hPa 0,0 l/m 0 min 0 min 0 W/m 0,0 km/h (0 Bft) 97,87 %
24.12.2020 19:26 4,3 C 3,9 C 2,7 C 96 % 1015,1 hPa 0,0 l/m 0 min 0 min 0 W/m 3,2 km/h (1 Bft) 97,83 %
24.12.2020 19:28 4,3 C 3,9 C 2,7 C 96 % 1015,1 hPa 0,0 l/m 0 min 0 min 0 W/m 0,0 km/h (0 Bft) 95,74 %
24.12.2020 19:30 4,3 C 3,9 C 2,7 C 96 % 1015,1 hPa 0,0 l/m 0 min 0 min 0 W/m 16,1 km/h (3 Bft) 97,87 %
24.12.2020 19:32 4,3 C 3,9 C 2,7 C 96 % 1015,2 hPa 0,0 l/m 0 min 0 min 0 W/m 16,1 km/h (3 Bft) 97,87 %
24.12.2020 19:34 4,3 C 3,3 C 2,7 C 96 % 1015,2 hPa 0,0 l/m 0 min 0 min 0 W/m 0,0 km/h (0 Bft) 97,87 %
24.12.2020 19:36 4,3 C 3,3 C 2,7 C 96 % 1015,2 hPa 0,0 l/m 0 min 0 min 0 W/m 3,2 km/h (1 Bft) 95,74 %
24.12.2020 19:38 4,2 C 3,3 C 2,7 C 96 % 1015,2 hPa 0,0 l/m 0 min 0 min 0 W/m 0,0 km/h (0 Bft) 97,83 %
24.12.2020 19:40 4,2 C 3,3 C 2,7 C 96 % 1015,3 hPa 0,0 l/m 0 min 0 min 0 W/m 6,4 km/h (2 Bft) 97,87 %
24.12.2020 19:42 4,2 C 3,3 C 2,7 C 96 % 1015,3 hPa 0,0 l/m 0 min 0 min 0 W/m 19,3 km/h (3 Bft) 93,62 %
24.12.2020 19:44 4,2 C 3,3 C 2,7 C 96 % 1015,3 hPa 0,0 l/m 0 min 0 min 0 W/m 9,7 km/h (2 Bft) 95,74 %
24.12.2020 19:46 4,1 C 3,3 C 2,7 C 96 % 1015,2 hPa 0,0 l/m 0 min 0 min 0 W/m 0,0 km/h (0 Bft) 97,87 %
24.12.2020 19:48 4,1 C 3,3 C 2,7 C 96 % 1015,3 hPa 0,0 l/m 0 min 0 min 0 W/m 12,9 km/h (3 Bft) 97,73 %
24.12.2020 19:50 4,1 C 3,3 C 2,7 C 96 % 1015,3 hPa 0,0 l/m 0 min 0 min 0 W/m 19,3 km/h (3 Bft) 97,87 %
24.12.2020 19:52 4,1 C 3,3 C 2,7 C 96 % 1015,3 hPa 0,0 l/m 0 min 0 min 0 W/m 6,4 km/h (2 Bft) 95,74 %
24.12.2020 19:54 4,0 C 3,3 C 2,7 C 96 % 1015,3 hPa 0,0 l/m 0 min 0 min 0 W/m 3,2 km/h (1 Bft) 93,62 %
24.12.2020 19:56 4,0 C 3,3 C 2,7 C 96 % 1015,3 hPa 0,0 l/m 0 min 0 min 0 W/m 16,1 km/h (3 Bft) 95,65 %
24.12.2020 19:58 4,0 C 3,3 C 2,7 C 96 % 1015,4 hPa 0,0 l/m 0 min 0 min 0 W/m 12,9 km/h (3 Bft) 97,87 %
24.12.2020 20:00 4,0 C 3,3 C 2,7 C 96 % 1015,4 hPa 0,0 l/m 0 min 0 min 0 W/m 9,7 km/h (2 Bft) 95,74 %
24.12.2020 20:02 4,0 C 3,3 C 2,7 C 96 % 1015,4 hPa 0,0 l/m 0 min 0 min 0 W/m 0,0 km/h (0 Bft) 95,35 %
24.12.2020 20:04 4,0 C 3,3 C 2,7 C 96 % 1015,4 hPa 0,0 l/m 0 min 0 min 0 W/m 3,2 km/h (1 Bft) 96,00 %
24.12.2020 20:06 4,0 C 3,3 C 2,7 C 96 % 1015,4 hPa 0,0 l/m 0 min 0 min 0 W/m 0,0 km/h (0 Bft) 91,49 %
24.12.2020 20:08 4,0 C 3,3 C 2,7 C 96 % 1015,4 hPa 0,0 l/m 0 min 0 min 0 W/m 16,1 km/h (3 Bft) 97,87 %
24.12.2020 20:10 4,0 C 3,3 C 2,7 C 96 % 1015,4 hPa 0,0 l/m 0 min 0 min 0 W/m 6,4 km/h (2 Bft) 97,87 %
24.12.2020 20:12 4,0 C 3,3 C 2,7 C 96 % 1015,4 hPa 0,0 l/m 0 min 0 min 0 W/m 3,2 km/h (1 Bft) 95,74 %
24.12.2020 20:14 4,0 C 3,3 C 2,7 C 96 % 1015,5 hPa 0,0 l/m 0 min 0 min 0 W/m 3,2 km/h (1 Bft) 97,83 %
24.12.2020 20:16 4,0 C 3,3 C 2,7 C 96 % 1015,5 hPa 0,0 l/m 0 min 0 min 0 W/m 0,0 km/h (0 Bft) 97,87 %
24.12.2020 20:18 4,0 C 3,3 C 2,7 C 96 % 1015,5 hPa 0,0 l/m 0 min 0 min 0 W/m 3,2 km/h (1 Bft) 95,74 %
24.12.2020 20:20 4,0 C 3,3 C 2,7 C 96 % 1015,5 hPa 0,0 l/m 0 min 0 min 0 W/m 0,0 km/h (0 Bft) 97,87 %
24.12.2020 20:22 4,0 C 3,3 C 2,7 C 96 % 1015,5 hPa 0,0 l/m 0 min 0 min 0 W/m 0,0 km/h (0 Bft) 97,87 %
24.12.2020 20:24 4,0 C 3,3 C 2,7 C 96 % 1015,6 hPa 0,0 l/m 0 min 0 min 0 W/m 0,0 km/h (0 Bft) 97,83 %
24.12.2020 20:26 4,0 C 3,9 C 2,7 C 96 % 1015,6 hPa 0,0 l/m 0 min 0 min 0 W/m 0,0 km/h (0 Bft) 97,87 %
24.12.2020 20:28 4,0 C 3,9 C 2,7 C 96 % 1015,6 hPa 0,0 l/m 0 min 0 min 0 W/m 0,0 km/h (0 Bft) 97,87 %
24.12.2020 20:30 4,0 C 3,9 C 2,7 C 96 % 1015,6 hPa 0,0 l/m 0 min 0 min 0 W/m 0,0 km/h (0 Bft) 97,87 %
24.12.2020 20:32 4,0 C 3,9 C 2,7 C 96 % 1015,6 hPa 0,0 l/m 0 min 0 min 0 W/m 0,0 km/h (0 Bft) 97,87 %
24.12.2020 20:34 4,0 C 3,9 C 2,7 C 96 % 1015,6 hPa 0,0 l/m 0 min 0 min 0 W/m 22,5 km/h (4 Bft) 97,87 %
24.12.2020 20:36 4,0 C 3,9 C 2,7 C 96 % 1015,6 hPa 0,0 l/m 0 min 0 min 0 W/m 16,1 km/h (3 Bft) 97,83 %
24.12.2020 20:38 4,0 C 3,9 C 2,7 C 96 % 1015,7 hPa 0,0 l/m 0 min 0 min 0 W/m 22,5 km/h (4 Bft) 97,87 %
24.12.2020 20:40 4,0 C 3,9 C 2,7 C 96 % 1015,7 hPa 0,0 l/m 0 min 0 min 0 W/m 0,0 km/h (0 Bft) 100,00 %
24.12.2020 20:42 4,1 C 3,3 C 2,7 C 96 % 1015,7 hPa 0,0 l/m 0 min 2 min 0 W/m 0,0 km/h (0 Bft) 100,00 %
24.12.2020 20:44 4,1 C 3,3 C 2,7 C 96 % 1015,7 hPa 0,0 l/m 0 min 2 min 0 W/m 0,0 km/h (0 Bft) 100,00 %
24.12.2020 20:46 4,1 C 3,3 C 2,7 C 96 % 1015,8 hPa 0,0 l/m 0 min 2 min 0 W/m 0,0 km/h (0 Bft) 100,00 %
24.12.2020 20:48 4,1 C 3,3 C 2,7 C 96 % 1015,8 hPa 0,0 l/m 0 min 0 min 0 W/m 0,0 km/h (0 Bft) 100,00 %
24.12.2020 20:50 4,1 C 3,3 C 2,7 C 96 % 1015,8 hPa 0,0 l/m 0 min 0 min 0 W/m 0,0 km/h (0 Bft) 100,00 %
24.12.2020 20:52 4,1 C 3,3 C 2,7 C 96 % 1015,8 hPa 0,0 l/m 0 min 0 min 0 W/m 9,7 km/h (2 Bft) 100,00 %
24.12.2020 20:54 4,1 C 3,3 C 2,7 C 96 % 1015,9 hPa 0,0 l/m 0 min 0 min 0 W/m 3,2 km/h (1 Bft) 100,00 %
24.12.2020 20:56 4,1 C 3,3 C 2,7 C 96 % 1015,9 hPa 0,0 l/m 0 min 0 min 0 W/m 19,3 km/h (3 Bft) 100,00 %
24.12.2020 20:58 4,1 C 3,3 C 2,7 C 96 % 1015,9 hPa 0,0 l/m 0 min 0 min 0 W/m 22,5 km/h (4 Bft) 97,87 %
24.12.2020 21:00 4,1 C 3,3 C 2,7 C 96 % 1015,9 hPa 0,0 l/m 0 min 0 min 0 W/m 16,1 km/h (3 Bft) 95,74 %
24.12.2020 21:02 4,1 C 3,3 C 2,7 C 96 % 1015,9 hPa 0,0 l/m 0 min 0 min 0 W/m 0,0 km/h (0 Bft) 100,00 %
24.12.2020 21:04 4,1 C 3,3 C 2,7 C 96 % 1016,0 hPa 0,2 l/m 0 min 0 min 0 W/m 16,1 km/h (3 Bft) 100,00 %
24.12.2020 21:06 4,1 C 3,3 C 2,7 C 96 % 1016,1 hPa 0,0 l/m 0 min 0 min 0 W/m 29,0 km/h (5 Bft) 100,00 %
24.12.2020 21:08 4,1 C 3,3 C 2,7 C 96 % 1016,1 hPa 0,0 l/m 0 min 0 min 0 W/m 16,1 km/h (3 Bft) 100,00 %
24.12.2020 21:10 4,2 C 3,3 C 2,7 C 96 % 1016,1 hPa 0,0 l/m 0 min 0 min 0 W/m 12,9 km/h (3 Bft) 100,00 %
24.12.2020 21:12 4,2 C 3,3 C 2,7 C 96 % 1016,1 hPa 0,0 l/m 0 min 0 min 0 W/m 3,2 km/h (1 Bft) 100,00 %
24.12.2020 21:14 4,2 C 3,3 C 2,7 C 96 % 1016,2 hPa 0,0 l/m 0 min 0 min 0 W/m 16,1 km/h (3 Bft) 100,00 %
24.12.2020 21:16 4,2 C 3,3 C 2,7 C 96 % 1016,2 hPa 0,0 l/m 0 min 0 min 0 W/m 12,9 km/h (3 Bft) 100,00 %
24.12.2020 21:18 4,2 C 3,3 C 2,7 C 96 % 1016,2 hPa 0,0 l/m 0 min 0 min 0 W/m 19,3 km/h (3 Bft) 100,00 %
24.12.2020 21:20 4,2 C 3,3 C 2,7 C 96 % 1016,3 hPa 0,0 l/m 0 min 0 min 0 W/m 16,1 km/h (3 Bft) 100,00 %
24.12.2020 21:22 4,2 C 3,3 C 2,7 C 96 % 1016,3 hPa 0,0 l/m 0 min 0 min 0 W/m 9,7 km/h (2 Bft) 97,87 %
24.12.2020 21:24 4,2 C 3,3 C 2,7 C 96 % 1016,3 hPa 0,0 l/m 0 min 0 min 0 W/m 3,2 km/h (1 Bft) 97,87 %
24.12.2020 21:26 4,2 C 3,3 C 2,7 C 96 % 1016,3 hPa 0,0 l/m 0 min 0 min 0 W/m 9,7 km/h (2 Bft) 100,00 %
24.12.2020 21:28 4,2 C 3,3 C 2,7 C 96 % 1016,3 hPa 0,0 l/m 0 min 0 min 0 W/m 16,1 km/h (3 Bft) 100,00 %
24.12.2020 21:30 4,2 C 3,3 C 2,7 C 96 % 1016,2 hPa 0,0 l/m 0 min 0 min 0 W/m 16,1 km/h (3 Bft) 100,00 %
24.12.2020 21:32 4,2 C 3,3 C 2,7 C 96 % 1016,2 hPa 0,0 l/m 0 min 0 min 0 W/m 0,0 km/h (0 Bft) 100,00 %
24.12.2020 21:34 4,2 C 3,3 C 2,7 C 96 % 1016,2 hPa 0,0 l/m 0 min 0 min 0 W/m 3,2 km/h (1 Bft) 100,00 %
24.12.2020 21:36 4,2 C 3,3 C 2,7 C 96 % 1016,2 hPa 0,0 l/m 0 min 0 min 0 W/m 0,0 km/h (0 Bft) 100,00 %
24.12.2020 21:38 4,2 C 3,3 C 2,7 C 96 % 1016,3 hPa 0,0 l/m 0 min 0 min 0 W/m 9,7 km/h (2 Bft) 97,87 %
24.12.2020 21:40 4,2 C 3,3 C 2,7 C 96 % 1016,3 hPa 0,0 l/m 0 min 2 min 0 W/m 22,5 km/h (4 Bft) 100,00 %
24.12.2020 21:42 4,2 C 3,3 C 2,7 C 96 % 1016,3 hPa 0,0 l/m 0 min 2 min 0 W/m 9,7 km/h (2 Bft) 100,00 %
24.12.2020 21:44 4,3 C 3,3 C 2,7 C 96 % 1016,3 hPa 0,0 l/m 0 min 2 min 0 W/m 0,0 km/h (0 Bft) 100,00 %
24.12.2020 21:46 4,3 C 3,3 C 2,7 C 96 % 1016,3 hPa 0,0 l/m 0 min 0 min 0 W/m 6,4 km/h (2 Bft) 100,00 %
24.12.2020 21:48 4,2 C 3,3 C 2,7 C 96 % 1016,3 hPa 0,0 l/m 0 min 0 min 0 W/m 3,2 km/h (1 Bft) 100,00 %
24.12.2020 21:50 4,2 C 3,3 C 2,7 C 96 % 1016,3 hPa 0,0 l/m 0 min 0 min 0 W/m 3,2 km/h (1 Bft) 97,83 %
24.12.2020 21:52 4,2 C 3,3 C 2,7 C 96 % 1016,3 hPa 0,0 l/m 0 min 0 min 0 W/m 9,7 km/h (2 Bft) 100,00 %
24.12.2020 21:54 4,2 C 3,3 C 2,7 C 96 % 1016,3 hPa 0,0 l/m 0 min 0 min 0 W/m 9,7 km/h (2 Bft) 100,00 %
24.12.2020 21:56 4,2 C 3,3 C 2,7 C 96 % 1016,3 hPa 0,0 l/m 0 min 0 min 0 W/m 0,0 km/h (0 Bft) 100,00 %
24.12.2020 21:58 4,2 C 3,3 C 2,7 C 96 % 1016,3 hPa 0,0 l/m 0 min 0 min 0 W/m 3,2 km/h (1 Bft) 100,00 %
24.12.2020 22:00 4,2 C 3,3 C 2,7 C 96 % 1016,3 hPa 0,0 l/m 0 min 0 min 0 W/m 3,2 km/h (1 Bft) 100,00 %
24.12.2020 22:02 4,2 C 3,3 C 2,7 C 96 % 1016,3 hPa 0,0 l/m 0 min 0 min 0 W/m 6,4 km/h (2 Bft) 100,00 %
24.12.2020 22:04 4,2 C 3,3 C 2,7 C 96 % 1016,3 hPa 0,0 l/m 0 min 0 min 0 W/m 0,0 km/h (0 Bft) 100,00 %
24.12.2020 22:06 4,1 C 3,3 C 2,7 C 96 % 1016,4 hPa 0,0 l/m 0 min 0 min 0 W/m 0,0 km/h (0 Bft) 100,00 %
24.12.2020 22:08 4,2 C 3,3 C 2,7 C 96 % 1016,5 hPa 0,0 l/m 0 min 0 min 0 W/m 3,2 km/h (1 Bft) 100,00 %
24.12.2020 22:10 4,1 C 3,3 C 2,7 C 96 % 1016,5 hPa 0,0 l/m 0 min 0 min 0 W/m 6,4 km/h (2 Bft) 100,00 %
24.12.2020 22:12 4,1 C 3,3 C 2,7 C 96 % 1016,5 hPa 0,0 l/m 0 min 0 min 0 W/m 16,1 km/h (3 Bft) 100,00 %
24.12.2020 22:14 4,1 C 3,3 C 2,7 C 96 % 1016,6 hPa 0,0 l/m 0 min 0 min 0 W/m 0,0 km/h (0 Bft) 97,87 %
24.12.2020 22:16 4,1 C 3,3 C 2,7 C 96 % 1016,6 hPa 0,0 l/m 0 min 0 min 0 W/m 19,3 km/h (3 Bft) 100,00 %
24.12.2020 22:18 4,1 C 3,3 C 2,7 C 96 % 1016,6 hPa 0,0 l/m 0 min 0 min 0 W/m 9,7 km/h (2 Bft) 95,74 %
24.12.2020 22:20 4,1 C 3,3 C 2,7 C 96 % 1016,7 hPa 0,0 l/m 0 min 0 min 0 W/m 0,0 km/h (0 Bft) 97,87 %
24.12.2020 22:22 4,1 C 3,3 C 2,7 C 96 % 1016,7 hPa 0,0 l/m 0 min 0 min 0 W/m 32,2 km/h (5 Bft) 93,62 %
24.12.2020 22:24 4,1 C 3,3 C 2,7 C 96 % 1016,7 hPa 0,0 l/m 0 min 0 min 0 W/m 19,3 km/h (3 Bft) 95,74 %
24.12.2020 22:26 4,1 C 3,3 C 2,7 C 95 % 1016,7 hPa 0,0 l/m 0 min 0 min 0 W/m 0,0 km/h (0 Bft) 97,87 %
24.12.2020 22:28 4,1 C 3,3 C 2,7 C 95 % 1016,7 hPa 0,0 l/m 0 min 0 min 0 W/m 0,0 km/h (0 Bft) 97,83 %
24.12.2020 22:30 4,1 C 3,3 C 2,7 C 95 % 1016,8 hPa 0,0 l/m 0 min 0 min 0 W/m 3,2 km/h (1 Bft) 95,74 %
24.12.2020 22:32 4,1 C 3,3 C 2,7 C 95 % 1016,8 hPa 0,0 l/m 0 min 0 min 0 W/m 3,2 km/h (1 Bft) 93,62 %
24.12.2020 22:34 4,1 C 3,3 C 2,7 C 95 % 1016,8 hPa 0,0 l/m 0 min 0 min 0 W/m 0,0 km/h (0 Bft) 93,62 %
24.12.2020 22:36 4,1 C 3,9 C 2,7 C 95 % 1016,9 hPa 0,0 l/m 0 min 0 min 0 W/m 3,2 km/h (1 Bft) 93,62 %
24.12.2020 22:38 4,1 C 3,9 C 2,7 C 95 % 1016,9 hPa 0,0 l/m 0 min 0 min 0 W/m 0,0 km/h (0 Bft) 93,62 %
24.12.2020 22:40 4,1 C 3,9 C 2,7 C 95 % 1017,0 hPa 0,0 l/m 0 min 0 min 0 W/m 3,2 km/h (1 Bft) 95,74 %
24.12.2020 22:42 4,1 C 3,9 C 2,7 C 95 % 1016,9 hPa 0,0 l/m 0 min 0 min 0 W/m 0,0 km/h (0 Bft) 91,49 %
24.12.2020 22:44 4,2 C 3,9 C 2,7 C 95 % 1016,9 hPa 0,0 l/m 0 min 0 min 0 W/m 0,0 km/h (0 Bft) 95,65 %
24.12.2020 22:46 4,2 C 3,9 C 2,7 C 95 % 1017,0 hPa 0,0 l/m 0 min 0 min 0 W/m 0,0 km/h (0 Bft) 93,62 %
24.12.2020 22:48 4,2 C 3,9 C 2,7 C 95 % 1017,0 hPa 0,0 l/m 0 min 0 min 0 W/m 22,5 km/h (4 Bft) 91,49 %
24.12.2020 22:50 4,2 C 3,9 C 2,7 C 95 % 1017,1 hPa 0,0 l/m 0 min 0 min 0 W/m 3,2 km/h (1 Bft) 95,74 %
24.12.2020 22:52 4,2 C 3,9 C 2,7 C 95 % 1017,1 hPa 0,0 l/m 0 min 0 min 0 W/m 3,2 km/h (1 Bft) 95,74 %
24.12.2020 22:54 4,2 C 3,9 C 2,7 C 96 % 1017,2 hPa 0,0 l/m 0 min 0 min 0 W/m 0,0 km/h (0 Bft) 93,62 %
24.12.2020 22:56 4,2 C 3,9 C 2,7 C 96 % 1017,2 hPa 0,0 l/m 0 min 2 min 0 W/m 3,2 km/h (1 Bft) 95,65 %
24.12.2020 22:58 4,3 C 3,9 C 2,7 C 96 % 1017,2 hPa 0,0 l/m 0 min 0 min 0 W/m 0,0 km/h (0 Bft) 95,74 %
24.12.2020 23:00 4,3 C 3,9 C 3,3 C 96 % 1017,2 hPa 0,0 l/m 0 min 0 min 0 W/m 19,3 km/h (3 Bft) 95,74 %
24.12.2020 23:02 4,3 C 3,9 C 3,3 C 96 % 1017,3 hPa 0,0 l/m 0 min 0 min 0 W/m 12,9 km/h (3 Bft) 95,74 %
24.12.2020 23:04 4,3 C 3,9 C 2,7 C 96 % 1017,3 hPa 0,0 l/m 0 min 0 min 0 W/m 0,0 km/h (0 Bft) 95,74 %
24.12.2020 23:06 4,3 C 3,9 C 2,7 C 96 % 1017,3 hPa 0,0 l/m 0 min 2 min 0 W/m 19,3 km/h (3 Bft) 93,62 %
24.12.2020 23:08 4,3 C 3,3 C 2,7 C 96 % 1017,3 hPa 0,0 l/m 0 min 2 min 0 W/m 0,0 km/h (0 Bft) 95,65 %
24.12.2020 23:10 4,3 C 3,3 C 2,7 C 96 % 1017,3 hPa 0,0 l/m 0 min 2 min 0 W/m 0,0 km/h (0 Bft) 97,87 %
24.12.2020 23:12 4,3 C 3,3 C 2,7 C 96 % 1017,3 hPa 0,0 l/m 0 min 0 min 0 W/m 0,0 km/h (0 Bft) 97,87 %
24.12.2020 23:14 4,3 C 3,3 C 2,7 C 96 % 1017,3 hPa 0,0 l/m 0 min 0 min 0 W/m 6,4 km/h (2 Bft) 97,87 %
24.12.2020 23:16 4,3 C 3,3 C 3,3 C 96 % 1017,3 hPa 0,0 l/m 0 min 0 min 0 W/m 0,0 km/h (0 Bft) 100,00 %
24.12.2020 23:18 4,3 C 3,3 C 2,7 C 95 % 1017,3 hPa 0,0 l/m 0 min 0 min 0 W/m 22,5 km/h (4 Bft) 100,00 %
24.12.2020 23:20 4,3 C 3,3 C 2,7 C 95 % 1017,4 hPa 0,0 l/m 0 min 0 min 0 W/m 0,0 km/h (0 Bft) 100,00 %
24.12.2020 23:22 4,3 C 3,3 C 2,7 C 95 % 1017,4 hPa 0,0 l/m 0 min 0 min 0 W/m 0,0 km/h (0 Bft) 97,87 %
24.12.2020 23:24 4,3 C 3,3 C 2,7 C 95 % 1017,4 hPa 0,0 l/m 0 min 0 min 0 W/m 0,0 km/h (0 Bft) 100,00 %
24.12.2020 23:26 4,3 C 3,3 C 2,7 C 95 % 1017,4 hPa 0,0 l/m 0 min 0 min 0 W/m 9,7 km/h (2 Bft) 100,00 %
24.12.2020 23:28 4,3 C 3,3 C 2,7 C 95 % 1017,5 hPa 0,0 l/m 0 min 0 min 0 W/m 0,0 km/h (0 Bft) 100,00 %
24.12.2020 23:30 4,3 C 3,3 C 2,7 C 95 % 1017,4 hPa 0,0 l/m 0 min 0 min 0 W/m 6,4 km/h (2 Bft) 100,00 %
24.12.2020 23:32 4,3 C 3,9 C 2,7 C 95 % 1017,4 hPa 0,0 l/m 0 min 0 min 0 W/m 12,9 km/h (3 Bft) 97,87 %
24.12.2020 23:34 4,3 C 3,9 C 2,7 C 96 % 1017,5 hPa 0,0 l/m 0 min 0 min 0 W/m 3,2 km/h (1 Bft) 100,00 %
24.12.2020 23:36 4,3 C 3,9 C 2,7 C 96 % 1017,5 hPa 0,0 l/m 0 min 0 min 0 W/m 0,0 km/h (0 Bft) 100,00 %
24.12.2020 23:38 4,3 C 3,3 C 2,7 C 96 % 1017,5 hPa 0,0 l/m 0 min 0 min 0 W/m 3,2 km/h (1 Bft) 100,00 %
24.12.2020 23:40 4,3 C 3,3 C 2,7 C 96 % 1017,5 hPa 0,0 l/m 0 min 0 min 0 W/m 3,2 km/h (1 Bft) 100,00 %
24.12.2020 23:42 4,3 C 3,3 C 2,7 C 96 % 1017,6 hPa 0,0 l/m 0 min 0 min 0 W/m 0,0 km/h (0 Bft) 100,00 %
24.12.2020 23:44 4,3 C 3,3 C 2,7 C 96 % 1017,6 hPa 0,0 l/m 0 min 0 min 0 W/m 3,2 km/h (1 Bft) 100,00 %
24.12.2020 23:46 4,3 C 3,3 C 2,7 C 96 % 1017,6 hPa 0,0 l/m 0 min 0 min 0 W/m 0,0 km/h (0 Bft) 100,00 %
24.12.2020 23:48 4,2 C 3,3 C 2,7 C 96 % 1017,6 hPa 0,0 l/m 0 min 0 min 0 W/m 0,0 km/h (0 Bft) 100,00 %
24.12.2020 23:50 4,2 C 3,3 C 2,7 C 96 % 1017,6 hPa 0,0 l/m 0 min 0 min 0 W/m 3,2 km/h (1 Bft) 100,00 %
24.12.2020 23:52 4,2 C 3,3 C 2,7 C 96 % 1017,7 hPa 0,0 l/m 0 min 0 min 0 W/m 3,2 km/h (1 Bft) 100,00 %
24.12.2020 23:54 4,2 C 3,3 C 2,7 C 96 % 1017,8 hPa 0,0 l/m 0 min 0 min 0 W/m 12,9 km/h (3 Bft) 97,83 %
24.12.2020 23:56 4,2 C 3,3 C 2,7 C 96 % 1017,7 hPa 0,0 l/m 0 min 0 min 0 W/m 0,0 km/h (0 Bft) 100,00 %
24.12.2020 23:58 4,2 C 3,3 C 2,7 C 96 % 1017,8 hPa 0,0 l/m 0 min 0 min 0 W/m 0,0 km/h (0 Bft) 100,00 %
_ Min-Zeit 19:54 19:34 18:46 00:42 04:58 - - - - 05:30 19:00
Minimum _ 4,0 C 3,3 C 2,7 C 84 % 1006,0 hPa - - - - 0,0 km/h (0 Bft) 57,45 %
_ Max-Zeit 00:00 00:00 00:00 14:18 23:54 05:46 00:00 06:08 11:30 02:28 00:00
Maximum _ 10,5 C 10,0 C 8,8 C 98 % 1017,8 hPa 0,2 l/m 0 min 4 min 66 W/m 48,3 km/h
SO (6 Bft)
100,00 %
Durchschnitt _ 6,1 C 5,3 C 4,3 C 93 % 1010,8 hPa #1,8 l/m #0 min. #3:36 h 31 W/m 10,3 km/h (2 Bft) 97,62 %
© 2020 W. Hausmann